GFSNIL_prec_precacc_036.txt.gz
Total_Precipitation_Accumulation
0.02 0.06 0.10 0.12 0.08 0.06 0.05 0.07 0.09 0.12 0.13 0.15 0.16 0.15 0.15 0.14 0.13 0.09 0.07 0.05 0.04 0.02
0.02 0.07 0.07 0.06 0.06 0.05 0.06 0.07 0.08 0.09 0.11 0.14 0.16 0.16 0.17 0.16 0.15 0.12 0.08 0.05 0.03 0.01
0.06 0.08 0.07 0.06 0.05 0.04 0.05 0.05 0.06 0.08 0.09 0.10 0.13 0.15 0.16 0.14 0.13 0.11 0.08 0.05 0.03 0.01
0.05 0.05 0.06 0.05 0.05 0.04 0.04 0.04 0.05 0.08 0.08 0.07 0.06 0.07 0.11 0.12 0.09 0.08 0.08 0.07 0.08 0.08
0.05 0.05 0.05 0.05 0.05 0.05 0.04 0.05 0.06 0.07 0.05 0.04 0.03 0.03 0.04 0.06 0.08 0.07 0.08 0.10 0.10 0.09
0.04 0.04 0.06 0.07 0.07 0.07 0.07 0.08 0.07 0.05 0.04 0.03 0.04 0.03 0.03 0.05 0.08 0.08 0.10 0.12 0.12 0.12
0.08 0.07 0.07 0.06 0.06 0.06 0.07 0.07 0.06 0.08 0.08 0.07 0.06 0.07 0.11 0.14 0.14 0.15 0.15 0.15 0.16 0.16
0.08 0.09 0.07 0.05 0.07 0.07 0.06 0.06 0.04 0.08 0.15 0.17 0.16 0.15 0.12 0.11 0.12 0.14 0.15 0.16 0.18 0.20
0.08 0.08 0.09 0.08 0.05 0.08 0.08 0.08 0.12 0.11 0.11 0.14 0.18 0.32 0.25 0.16 0.14 0.15 0.17 0.21 0.25 0.28
0.13 0.20 0.20 0.15 0.13 0.11 0.15 0.24 0.23 0.22 0.25 0.24 0.22 0.28 0.25 0.31 0.34 0.39 0.40 0.36 0.31 0.25
0.48 0.52 0.60 0.75 0.63 0.64 0.52 0.46 0.53 0.55 0.57 0.63 0.70 0.72 0.62 0.48 0.37 0.34 0.31 0.24 0.19 0.15
0.70 0.74 0.84 1.06 1.14 0.80 0.97 0.77 0.77 0.67 0.54 0.57 0.63 0.56 0.39 0.30 0.20 0.13 0.09 0.06 0.03 0.01
0.74 0.73 0.89 0.99 0.98 0.72 0.61 0.65 0.58 0.62 0.56 0.45 0.35 0.23 0.14 0.07 0.05 0.02 0.00 0.00 0.00 0.00
0.73 0.45 0.61 0.69 0.62 0.47 0.37 0.41 0.41 0.37 0.30 0.19 0.10 0.04 0.01 0.00 0.00 0.00 0.00 0.00 0.00 0.00

GFSNIL_prec_precacc_039.txt.gz
Total_Precipitation_Accumulation
0.02 0.06 0.10 0.12 0.08 0.06 0.05 0.07 0.09 0.12 0.13 0.15 0.16 0.16 0.16 0.15 0.16 0.15 0.13 0.11 0.10 0.07
0.02 0.07 0.07 0.06 0.06 0.05 0.06 0.07 0.08 0.10 0.11 0.14 0.16 0.16 0.18 0.17 0.17 0.16 0.14 0.13 0.11 0.07
0.06 0.08 0.07 0.06 0.05 0.04 0.05 0.05 0.06 0.08 0.09 0.11 0.14 0.16 0.18 0.16 0.16 0.14 0.13 0.13 0.12 0.08
0.05 0.05 0.06 0.05 0.05 0.04 0.04 0.04 0.05 0.08 0.09 0.08 0.07 0.08 0.13 0.15 0.15 0.16 0.14 0.13 0.15 0.17
0.05 0.05 0.05 0.05 0.05 0.05 0.04 0.05 0.06 0.07 0.06 0.05 0.04 0.04 0.05 0.09 0.12 0.14 0.14 0.15 0.14 0.12
0.04 0.04 0.06 0.07 0.07 0.07 0.07 0.08 0.07 0.05 0.05 0.05 0.05 0.04 0.04 0.06 0.10 0.12 0.14 0.15 0.15 0.14
0.08 0.07 0.07 0.06 0.06 0.06 0.07 0.07 0.06 0.08 0.08 0.07 0.06 0.07 0.11 0.14 0.16 0.16 0.17 0.18 0.19 0.18
0.08 0.09 0.07 0.05 0.07 0.07 0.06 0.06 0.04 0.08 0.15 0.17 0.17 0.16 0.13 0.11 0.12 0.15 0.19 0.20 0.23 0.24
0.08 0.08 0.09 0.08 0.05 0.08 0.08 0.08 0.12 0.11 0.11 0.14 0.18 0.33 0.26 0.17 0.15 0.16 0.20 0.23 0.29 0.35
0.13 0.20 0.20 0.15 0.13 0.11 0.15 0.24 0.23 0.22 0.26 0.25 0.23 0.30 0.26 0.32 0.35 0.42 0.44 0.40 0.35 0.31
0.48 0.52 0.60 0.75 0.63 0.64 0.52 0.46 0.54 0.56 0.58 0.64 0.74 0.77 0.66 0.52 0.41 0.40 0.39 0.34 0.28 0.22
0.70 0.74 0.84 1.06 1.14 0.80 0.97 0.78 0.78 0.68 0.55 0.59 0.70 0.65 0.49 0.44 0.38 0.26 0.15 0.08 0.03 0.01
0.74 0.73 0.89 0.99 0.98 0.72 0.61 0.65 0.58 0.63 0.60 0.50 0.43 0.31 0.19 0.10 0.07 0.04 0.01 0.00 0.00 0.00
0.73 0.45 0.61 0.69 0.62 0.47 0.37 0.42 0.43 0.39 0.32 0.22 0.13 0.06 0.02 0.01 0.01 0.00 0.00 0.00 0.00 0.00

GFSNIL_prec_precacc_042.txt.gz
Total_Precipitation_Accumulation
0.02 0.06 0.10 0.12 0.08 0.06 0.05 0.07 0.10 0.15 0.15 0.16 0.17 0.17 0.17 0.17 0.18 0.17 0.16 0.15 0.13 0.12
0.02 0.07 0.07 0.06 0.06 0.05 0.06 0.07 0.08 0.11 0.14 0.14 0.16 0.17 0.20 0.19 0.20 0.20 0.18 0.18 0.16 0.12
0.06 0.08 0.07 0.06 0.05 0.04 0.05 0.05 0.06 0.08 0.09 0.11 0.15 0.18 0.21 0.18 0.20 0.21 0.21 0.20 0.20 0.15
0.05 0.05 0.06 0.05 0.05 0.04 0.04 0.04 0.05 0.08 0.09 0.08 0.08 0.10 0.16 0.18 0.18 0.22 0.21 0.20 0.23 0.23
0.05 0.05 0.05 0.05 0.05 0.05 0.04 0.05 0.06 0.07 0.06 0.05 0.04 0.04 0.06 0.10 0.14 0.16 0.18 0.18 0.19 0.16
0.04 0.04 0.06 0.07 0.07 0.07 0.07 0.08 0.07 0.05 0.05 0.06 0.05 0.05 0.04 0.06 0.11 0.13 0.15 0.16 0.17 0.17
0.08 0.07 0.07 0.06 0.06 0.06 0.07 0.07 0.06 0.08 0.08 0.07 0.06 0.08 0.11 0.14 0.16 0.16 0.17 0.18 0.20 0.19
0.08 0.09 0.07 0.05 0.07 0.07 0.06 0.06 0.04 0.08 0.15 0.17 0.17 0.16 0.13 0.11 0.12 0.15 0.19 0.21 0.23 0.26
0.08 0.08 0.09 0.08 0.05 0.08 0.08 0.08 0.12 0.11 0.11 0.14 0.18 0.33 0.26 0.17 0.15 0.17 0.21 0.26 0.31 0.38
0.13 0.20 0.20 0.15 0.13 0.11 0.15 0.24 0.23 0.22 0.26 0.25 0.23 0.31 0.27 0.33 0.36 0.42 0.46 0.47 0.41 0.34
0.48 0.52 0.60 0.75 0.63 0.64 0.52 0.46 0.54 0.56 0.58 0.64 0.75 0.78 0.67 0.53 0.44 0.45 0.47 0.42 0.37 0.30
0.70 0.74 0.84 1.06 1.14 0.80 0.97 0.78 0.78 0.68 0.55 0.59 0.70 0.65 0.49 0.44 0.39 0.29 0.19 0.14 0.07 0.03
0.75 0.73 0.89 0.99 0.98 0.72 0.61 0.65 0.58 0.63 0.60 0.50 0.43 0.31 0.19 0.10 0.08 0.05 0.02 0.00 0.00 0.00
0.73 0.45 0.61 0.69 0.62 0.47 0.37 0.42 0.43 0.39 0.32 0.22 0.13 0.06 0.02 0.01 0.01 0.00 0.00 0.00 0.00 0.00

GFSNIL_prec_precacc_045.txt.gz
Total_Precipitation_Accumulation
0.02 0.06 0.10 0.12 0.08 0.06 0.05 0.07 0.10 0.16 0.16 0.18 0.19 0.18 0.20 0.21 0.24 0.25 0.24 0.22 0.21 0.18
0.02 0.07 0.07 0.06 0.06 0.05 0.06 0.07 0.08 0.11 0.14 0.15 0.18 0.20 0.22 0.20 0.22 0.26 0.25 0.25 0.25 0.19
0.06 0.08 0.07 0.06 0.05 0.04 0.05 0.05 0.06 0.08 0.09 0.11 0.15 0.18 0.21 0.19 0.22 0.24 0.28 0.28 0.28 0.23
0.05 0.05 0.06 0.05 0.05 0.04 0.04 0.04 0.05 0.08 0.09 0.08 0.08 0.10 0.16 0.19 0.19 0.24 0.24 0.23 0.28 0.30
0.05 0.05 0.05 0.05 0.05 0.05 0.04 0.05 0.06 0.07 0.06 0.05 0.04 0.04 0.06 0.10 0.14 0.16 0.18 0.19 0.19 0.17
0.04 0.04 0.06 0.07 0.07 0.07 0.07 0.08 0.07 0.05 0.05 0.06 0.05 0.05 0.04 0.06 0.11 0.13 0.16 0.17 0.17 0.18
0.08 0.07 0.07 0.06 0.06 0.06 0.07 0.07 0.06 0.08 0.08 0.07 0.06 0.08 0.11 0.14 0.16 0.16 0.17 0.18 0.20 0.20
0.08 0.09 0.07 0.05 0.07 0.07 0.06 0.06 0.04 0.08 0.15 0.17 0.17 0.16 0.13 0.11 0.12 0.15 0.19 0.21 0.23 0.26
0.08 0.08 0.09 0.08 0.05 0.08 0.08 0.08 0.12 0.11 0.11 0.14 0.18 0.33 0.26 0.17 0.15 0.17 0.21 0.26 0.33 0.41
0.13 0.20 0.20 0.15 0.13 0.11 0.15 0.24 0.23 0.22 0.26 0.25 0.23 0.31 0.27 0.33 0.36 0.42 0.47 0.48 0.44 0.36
0.48 0.52 0.60 0.75 0.63 0.64 0.52 0.46 0.54 0.56 0.58 0.64 0.76 0.78 0.67 0.53 0.44 0.45 0.47 0.44 0.39 0.32
0.70 0.74 0.84 1.06 1.14 0.80 0.97 0.78 0.78 0.68 0.55 0.59 0.70 0.65 0.49 0.44 0.39 0.29 0.19 0.14 0.07 0.03
0.75 0.73 0.89 0.99 0.98 0.72 0.61 0.65 0.58 0.63 0.60 0.50 0.43 0.31 0.19 0.10 0.08 0.05 0.02 0.00 0.00 0.00
0.73 0.45 0.61 0.69 0.62 0.47 0.37 0.42 0.43 0.39 0.32 0.22 0.13 0.06 0.02 0.01 0.01 0.00 0.00 0.00 0.00 0.00

GFSNIL_prec_precacc_048.txt.gz
Total_Precipitation_Accumulation
0.02 0.06 0.10 0.12 0.08 0.06 0.05 0.07 0.10 0.16 0.16 0.18 0.19 0.18 0.21 0.23 0.25 0.27 0.25 0.23 0.23 0.23
0.02 0.07 0.07 0.06 0.06 0.05 0.06 0.07 0.08 0.11 0.14 0.15 0.18 0.20 0.22 0.20 0.22 0.26 0.26 0.26 0.27 0.20
0.06 0.08 0.07 0.06 0.05 0.04 0.05 0.05 0.06 0.08 0.09 0.11 0.15 0.18 0.21 0.19 0.22 0.24 0.28 0.28 0.28 0.24
0.05 0.05 0.06 0.05 0.05 0.04 0.04 0.04 0.05 0.08 0.09 0.08 0.08 0.10 0.16 0.19 0.19 0.24 0.24 0.23 0.28 0.30
0.05 0.05 0.05 0.05 0.05 0.05 0.04 0.05 0.06 0.07 0.06 0.05 0.04 0.04 0.06 0.10 0.14 0.17 0.18 0.19 0.20 0.17
0.04 0.04 0.06 0.07 0.07 0.07 0.07 0.08 0.07 0.05 0.05 0.06 0.05 0.05 0.04 0.06 0.11 0.13 0.16 0.17 0.18 0.18
0.08 0.07 0.07 0.06 0.06 0.06 0.07 0.07 0.06 0.08 0.08 0.07 0.06 0.08 0.11 0.14 0.16 0.16 0.17 0.18 0.20 0.20
0.08 0.09 0.07 0.05 0.07 0.07 0.06 0.06 0.04 0.08 0.15 0.17 0.17 0.16 0.13 0.11 0.12 0.15 0.19 0.21 0.23 0.26
0.08 0.08 0.09 0.08 0.05 0.08 0.08 0.08 0.12 0.11 0.11 0.14 0.18 0.33 0.26 0.17 0.15 0.17 0.21 0.26 0.33 0.41
0.13 0.20 0.20 0.15 0.13 0.11 0.15 0.24 0.23 0.22 0.26 0.25 0.23 0.32 0.27 0.33 0.36 0.42 0.47 0.48 0.44 0.36
0.48 0.52 0.60 0.75 0.63 0.64 0.52 0.46 0.54 0.56 0.58 0.64 0.76 0.78 0.67 0.53 0.44 0.45 0.47 0.44 0.39 0.32
0.70 0.74 0.84 1.06 1.14 0.80 0.97 0.78 0.78 0.68 0.55 0.59 0.70 0.65 0.49 0.44 0.39 0.29 0.19 0.14 0.07 0.03
0.75 0.73 0.89 0.99 0.98 0.72 0.61 0.65 0.58 0.63 0.60 0.50 0.43 0.31 0.19 0.10 0.08 0.05 0.02 0.00 0.00 0.00
0.73 0.45 0.61 0.69 0.62 0.47 0.37 0.42 0.43 0.39 0.32 0.22 0.13 0.06 0.02 0.01 0.01 0.00 0.00 0.00 0.00 0.00

GFSNIL_prec_precacc_051.txt.gz
Total_Precipitation_Accumulation
0.02 0.06 0.10 0.12 0.08 0.06 0.05 0.07 0.10 0.16 0.16 0.18 0.19 0.18 0.21 0.23 0.26 0.27 0.26 0.24 0.23 0.23
0.02 0.07 0.07 0.06 0.06 0.05 0.06 0.07 0.08 0.11 0.14 0.15 0.18 0.20 0.22 0.20 0.22 0.26 0.26 0.26 0.27 0.21
0.06 0.08 0.07 0.06 0.05 0.04 0.05 0.05 0.06 0.08 0.09 0.11 0.15 0.18 0.21 0.19 0.22 0.24 0.28 0.28 0.28 0.25
0.05 0.05 0.06 0.05 0.05 0.04 0.04 0.04 0.05 0.08 0.09 0.08 0.08 0.10 0.16 0.19 0.19 0.24 0.24 0.23 0.28 0.31
0.05 0.05 0.05 0.05 0.05 0.05 0.04 0.05 0.06 0.07 0.06 0.05 0.04 0.04 0.06 0.10 0.14 0.17 0.18 0.19 0.20 0.17
0.04 0.04 0.06 0.07 0.07 0.07 0.07 0.08 0.07 0.05 0.05 0.06 0.05 0.05 0.04 0.06 0.11 0.13 0.16 0.17 0.18 0.18
0.08 0.07 0.07 0.06 0.06 0.06 0.07 0.07 0.06 0.08 0.08 0.07 0.06 0.08 0.11 0.14 0.16 0.16 0.17 0.18 0.20 0.20
0.08 0.09 0.07 0.05 0.07 0.07 0.06 0.06 0.04 0.08 0.15 0.17 0.17 0.16 0.13 0.11 0.12 0.15 0.19 0.21 0.23 0.26
0.08 0.08 0.09 0.08 0.05 0.08 0.08 0.08 0.12 0.11 0.11 0.14 0.18 0.34 0.26 0.17 0.15 0.17 0.21 0.26 0.33 0.41
0.13 0.20 0.20 0.15 0.13 0.11 0.15 0.24 0.23 0.22 0.26 0.25 0.23 0.32 0.27 0.33 0.36 0.42 0.47 0.48 0.44 0.36
0.48 0.52 0.60 0.75 0.63 0.64 0.52 0.46 0.54 0.56 0.58 0.64 0.76 0.78 0.67 0.53 0.44 0.45 0.47 0.44 0.39 0.32
0.70 0.74 0.84 1.06 1.14 0.80 0.97 0.78 0.78 0.68 0.55 0.59 0.70 0.65 0.49 0.44 0.39 0.29 0.19 0.14 0.07 0.03
0.75 0.73 0.89 0.99 0.98 0.72 0.61 0.65 0.58 0.63 0.60 0.50 0.43 0.31 0.19 0.10 0.08 0.05 0.02 0.00 0.00 0.00
0.73 0.45 0.61 0.69 0.62 0.47 0.37 0.42 0.43 0.39 0.32 0.22 0.13 0.06 0.02 0.01 0.01 0.00 0.00 0.00 0.00 0.00

GFSNIL_prec_precacc_054.txt.gz
Total_Precipitation_Accumulation
0.02 0.06 0.10 0.12 0.08 0.06 0.05 0.07 0.10 0.16 0.16 0.18 0.19 0.18 0.21 0.23 0.26 0.29 0.27 0.26 0.24 0.23
0.02 0.07 0.07 0.06 0.06 0.05 0.06 0.07 0.08 0.11 0.14 0.15 0.18 0.20 0.22 0.21 0.22 0.26 0.26 0.27 0.27 0.21
0.06 0.08 0.07 0.06 0.05 0.04 0.05 0.05 0.06 0.08 0.09 0.11 0.15 0.18 0.21 0.19 0.22 0.24 0.28 0.29 0.29 0.25
0.05 0.05 0.06 0.05 0.05 0.04 0.04 0.04 0.05 0.08 0.09 0.08 0.08 0.10 0.16 0.19 0.19 0.24 0.24 0.23 0.28 0.31
0.05 0.05 0.05 0.05 0.05 0.05 0.04 0.05 0.06 0.07 0.06 0.05 0.04 0.04 0.06 0.10 0.14 0.17 0.18 0.19 0.20 0.17
0.04 0.04 0.06 0.07 0.07 0.07 0.07 0.08 0.07 0.05 0.05 0.06 0.05 0.05 0.04 0.06 0.11 0.13 0.16 0.17 0.18 0.18
0.08 0.07 0.07 0.06 0.06 0.06 0.07 0.07 0.06 0.08 0.08 0.07 0.06 0.08 0.11 0.14 0.16 0.16 0.17 0.18 0.20 0.20
0.08 0.09 0.07 0.05 0.07 0.07 0.06 0.06 0.04 0.08 0.15 0.17 0.17 0.16 0.13 0.11 0.12 0.15 0.19 0.21 0.23 0.26
0.08 0.08 0.09 0.08 0.05 0.08 0.08 0.08 0.12 0.11 0.11 0.14 0.18 0.35 0.27 0.18 0.15 0.17 0.21 0.26 0.33 0.41
0.13 0.20 0.20 0.15 0.13 0.11 0.15 0.24 0.23 0.22 0.26 0.25 0.23 0.32 0.27 0.33 0.36 0.42 0.47 0.48 0.44 0.36
0.48 0.52 0.60 0.75 0.63 0.64 0.52 0.46 0.54 0.56 0.58 0.64 0.76 0.78 0.67 0.53 0.44 0.45 0.47 0.44 0.39 0.32
0.70 0.74 0.84 1.06 1.14 0.80 0.97 0.78 0.78 0.68 0.55 0.59 0.70 0.65 0.49 0.44 0.39 0.29 0.19 0.14 0.07 0.03
0.75 0.73 0.89 0.99 0.98 0.72 0.61 0.65 0.58 0.63 0.60 0.50 0.43 0.31 0.19 0.10 0.08 0.05 0.02 0.00 0.00 0.00
0.73 0.45 0.61 0.69 0.62 0.47 0.37 0.42 0.43 0.39 0.32 0.22 0.13 0.06 0.02 0.01 0.01 0.00 0.00 0.00 0.00 0.00

GFSNIL_prec_precacc_060.txt.gz
Total_Precipitation_Accumulation
0.02 0.06 0.10 0.12 0.08 0.06 0.05 0.07 0.10 0.16 0.16 0.18 0.19 0.18 0.21 0.23 0.27 0.30 0.29 0.28 0.26 0.25
0.02 0.07 0.07 0.06 0.06 0.05 0.06 0.07 0.08 0.11 0.14 0.15 0.18 0.20 0.22 0.21 0.23 0.27 0.27 0.29 0.29 0.23
0.06 0.08 0.07 0.06 0.05 0.04 0.05 0.05 0.06 0.08 0.09 0.11 0.15 0.18 0.21 0.19 0.22 0.24 0.28 0.29 0.29 0.26
0.05 0.05 0.06 0.05 0.05 0.04 0.04 0.04 0.05 0.08 0.09 0.08 0.08 0.10 0.16 0.19 0.19 0.24 0.24 0.23 0.28 0.31
0.05 0.05 0.05 0.05 0.05 0.05 0.04 0.05 0.06 0.07 0.06 0.05 0.04 0.04 0.06 0.10 0.14 0.17 0.18 0.19 0.20 0.17
0.04 0.04 0.06 0.07 0.07 0.07 0.07 0.08 0.07 0.05 0.05 0.06 0.05 0.05 0.04 0.06 0.11 0.13 0.16 0.17 0.18 0.18
0.08 0.07 0.07 0.06 0.06 0.06 0.07 0.07 0.06 0.08 0.08 0.07 0.06 0.08 0.11 0.14 0.16 0.16 0.17 0.18 0.20 0.20
0.08 0.09 0.07 0.05 0.07 0.07 0.06 0.06 0.04 0.08 0.15 0.17 0.17 0.16 0.13 0.11 0.12 0.15 0.19 0.21 0.23 0.26
0.08 0.08 0.09 0.08 0.05 0.08 0.08 0.08 0.12 0.11 0.11 0.14 0.18 0.35 0.28 0.18 0.15 0.17 0.21 0.26 0.33 0.41
0.13 0.20 0.20 0.15 0.13 0.11 0.15 0.24 0.23 0.22 0.26 0.25 0.24 0.33 0.28 0.33 0.36 0.42 0.47 0.48 0.44 0.36
0.48 0.52 0.60 0.75 0.63 0.64 0.52 0.46 0.54 0.56 0.58 0.64 0.76 0.78 0.67 0.53 0.44 0.45 0.47 0.44 0.39 0.32
0.70 0.74 0.84 1.06 1.14 0.80 0.97 0.78 0.78 0.68 0.55 0.59 0.70 0.65 0.49 0.44 0.39 0.29 0.19 0.14 0.07 0.03
0.75 0.73 0.89 0.99 0.98 0.72 0.61 0.65 0.58 0.63 0.60 0.50 0.43 0.31 0.19 0.10 0.08 0.05 0.02 0.00 0.00 0.00
0.73 0.45 0.61 0.69 0.62 0.47 0.37 0.42 0.43 0.39 0.32 0.22 0.13 0.06 0.02 0.01 0.01 0.00 0.00 0.00 0.00 0.00

GFSNIL_prec_precacc_063.txt.gz
Total_Precipitation_Accumulation
0.02 0.06 0.10 0.12 0.08 0.06 0.05 0.07 0.10 0.16 0.16 0.18 0.19 0.18 0.21 0.23 0.27 0.30 0.30 0.29 0.28 0.26
0.02 0.07 0.07 0.06 0.06 0.05 0.06 0.07 0.08 0.11 0.14 0.15 0.18 0.20 0.22 0.21 0.23 0.27 0.27 0.29 0.29 0.24
0.06 0.08 0.07 0.06 0.05 0.04 0.05 0.05 0.06 0.08 0.09 0.11 0.15 0.18 0.21 0.19 0.22 0.24 0.28 0.29 0.30 0.26
0.05 0.05 0.06 0.05 0.05 0.04 0.04 0.04 0.05 0.08 0.09 0.08 0.08 0.10 0.16 0.19 0.19 0.24 0.24 0.23 0.28 0.31
0.05 0.05 0.05 0.05 0.05 0.05 0.04 0.05 0.06 0.07 0.06 0.05 0.04 0.04 0.06 0.10 0.14 0.17 0.18 0.19 0.20 0.17
0.04 0.04 0.06 0.07 0.07 0.07 0.07 0.08 0.07 0.05 0.05 0.06 0.05 0.05 0.04 0.06 0.11 0.13 0.16 0.17 0.18 0.18
0.08 0.07 0.07 0.06 0.06 0.06 0.07 0.07 0.06 0.08 0.08 0.07 0.06 0.08 0.11 0.14 0.16 0.16 0.17 0.18 0.20 0.20
0.08 0.09 0.07 0.05 0.07 0.07 0.06 0.06 0.04 0.08 0.15 0.17 0.17 0.16 0.13 0.11 0.12 0.15 0.19 0.21 0.23 0.26
0.08 0.08 0.09 0.08 0.05 0.08 0.08 0.08 0.12 0.11 0.11 0.14 0.18 0.36 0.28 0.18 0.15 0.17 0.21 0.26 0.33 0.41
0.13 0.20 0.20 0.15 0.13 0.11 0.15 0.24 0.23 0.22 0.26 0.25 0.24 0.34 0.28 0.33 0.36 0.42 0.47 0.48 0.44 0.36
0.48 0.52 0.60 0.75 0.63 0.64 0.52 0.46 0.54 0.56 0.58 0.64 0.76 0.78 0.67 0.53 0.44 0.45 0.47 0.44 0.39 0.32
0.70 0.74 0.84 1.06 1.14 0.80 0.97 0.78 0.78 0.68 0.55 0.59 0.70 0.65 0.49 0.44 0.39 0.29 0.19 0.14 0.07 0.03
0.75 0.73 0.89 0.99 0.98 0.72 0.61 0.65 0.58 0.63 0.60 0.50 0.43 0.31 0.19 0.10 0.08 0.05 0.02 0.00 0.00 0.00
0.73 0.45 0.61 0.69 0.62 0.47 0.37 0.42 0.43 0.39 0.32 0.22 0.13 0.06 0.02 0.01 0.01 0.00 0.00 0.00 0.00 0.00

GFSNIL_prec_precacc_066.txt.gz
Total_Precipitation_Accumulation
0.02 0.06 0.10 0.12 0.08 0.06 0.05 0.07 0.10 0.16 0.16 0.18 0.19 0.18 0.21 0.23 0.27 0.30 0.30 0.29 0.29 0.28
0.02 0.07 0.07 0.06 0.06 0.05 0.06 0.07 0.08 0.11 0.14 0.15 0.18 0.20 0.22 0.21 0.23 0.27 0.27 0.29 0.29 0.24
0.06 0.08 0.07 0.06 0.05 0.04 0.05 0.05 0.06 0.08 0.09 0.11 0.15 0.18 0.21 0.19 0.22 0.24 0.28 0.29 0.30 0.27
0.05 0.05 0.06 0.05 0.05 0.04 0.04 0.04 0.05 0.08 0.09 0.08 0.08 0.10 0.16 0.19 0.19 0.24 0.24 0.23 0.28 0.31
0.05 0.05 0.05 0.05 0.05 0.05 0.04 0.05 0.06 0.07 0.06 0.05 0.04 0.04 0.06 0.10 0.14 0.17 0.18 0.19 0.20 0.17
0.04 0.04 0.06 0.07 0.07 0.07 0.07 0.08 0.07 0.05 0.05 0.06 0.05 0.05 0.04 0.06 0.11 0.13 0.16 0.17 0.18 0.18
0.08 0.07 0.07 0.06 0.06 0.06 0.07 0.07 0.06 0.08 0.08 0.07 0.06 0.08 0.11 0.14 0.16 0.16 0.17 0.18 0.20 0.20
0.08 0.09 0.07 0.05 0.07 0.07 0.06 0.06 0.04 0.08 0.15 0.17 0.17 0.16 0.13 0.11 0.12 0.15 0.19 0.21 0.23 0.26
0.08 0.08 0.09 0.08 0.05 0.08 0.08 0.08 0.12 0.11 0.11 0.14 0.18 0.36 0.28 0.18 0.15 0.17 0.21 0.26 0.33 0.41
0.13 0.20 0.20 0.15 0.13 0.11 0.15 0.24 0.23 0.22 0.26 0.25 0.24 0.34 0.28 0.33 0.36 0.42 0.47 0.48 0.44 0.36
0.48 0.52 0.60 0.75 0.63 0.64 0.52 0.46 0.54 0.56 0.58 0.64 0.76 0.79 0.67 0.53 0.44 0.45 0.47 0.44 0.39 0.32
0.70 0.74 0.84 1.06 1.14 0.80 0.97 0.78 0.78 0.68 0.55 0.59 0.70 0.65 0.49 0.44 0.39 0.29 0.19 0.14 0.07 0.03
0.75 0.73 0.89 0.99 0.98 0.72 0.61 0.65 0.58 0.63 0.60 0.50 0.43 0.31 0.19 0.10 0.08 0.05 0.02 0.00 0.00 0.00
0.73 0.45 0.61 0.69 0.62 0.47 0.37 0.42 0.43 0.39 0.32 0.22 0.13 0.06 0.02 0.01 0.01 0.00 0.00 0.00 0.00 0.00

GFSNIL_prec_precacc_069.txt.gz
Total_Precipitation_Accumulation
0.03 0.07 0.10 0.12 0.08 0.06 0.05 0.07 0.10 0.16 0.16 0.18 0.19 0.18 0.21 0.23 0.27 0.30 0.30 0.29 0.29 0.28
0.02 0.07 0.07 0.06 0.06 0.05 0.06 0.07 0.08 0.11 0.14 0.15 0.18 0.20 0.22 0.21 0.23 0.27 0.27 0.29 0.29 0.24
0.06 0.08 0.07 0.06 0.05 0.04 0.05 0.05 0.06 0.08 0.09 0.11 0.15 0.18 0.21 0.19 0.22 0.24 0.28 0.29 0.30 0.27
0.05 0.05 0.06 0.05 0.05 0.04 0.04 0.04 0.05 0.08 0.09 0.08 0.08 0.10 0.16 0.19 0.19 0.24 0.24 0.23 0.28 0.31
0.05 0.05 0.05 0.05 0.05 0.05 0.04 0.05 0.06 0.07 0.06 0.05 0.04 0.04 0.06 0.10 0.14 0.17 0.18 0.19 0.20 0.17
0.04 0.04 0.06 0.07 0.07 0.07 0.07 0.08 0.07 0.05 0.05 0.06 0.05 0.05 0.04 0.06 0.11 0.13 0.16 0.17 0.18 0.18
0.08 0.07 0.07 0.06 0.06 0.06 0.07 0.07 0.06 0.08 0.08 0.07 0.06 0.08 0.11 0.14 0.16 0.16 0.17 0.18 0.20 0.20
0.08 0.09 0.07 0.05 0.07 0.07 0.06 0.06 0.04 0.08 0.15 0.17 0.17 0.16 0.13 0.11 0.12 0.15 0.19 0.21 0.23 0.26
0.08 0.08 0.09 0.08 0.05 0.08 0.08 0.08 0.12 0.11 0.11 0.14 0.18 0.36 0.28 0.18 0.15 0.17 0.21 0.26 0.33 0.41
0.13 0.20 0.20 0.15 0.13 0.11 0.15 0.24 0.23 0.22 0.26 0.25 0.24 0.35 0.29 0.33 0.36 0.42 0.47 0.48 0.44 0.36
0.48 0.52 0.60 0.75 0.63 0.64 0.52 0.46 0.54 0.56 0.58 0.64 0.76 0.79 0.67 0.54 0.44 0.45 0.47 0.44 0.39 0.32
0.70 0.74 0.84 1.06 1.14 0.80 0.97 0.78 0.78 0.68 0.55 0.59 0.71 0.65 0.49 0.44 0.39 0.29 0.19 0.14 0.07 0.03
0.75 0.73 0.89 0.99 0.98 0.72 0.61 0.65 0.58 0.63 0.60 0.51 0.43 0.31 0.19 0.10 0.08 0.05 0.02 0.00 0.00 0.00
0.73 0.45 0.61 0.69 0.62 0.47 0.37 0.42 0.43 0.39 0.32 0.22 0.13 0.06 0.02 0.01 0.01 0.00 0.00 0.00 0.00 0.00

GFSNIL_prec_precacc_072.txt.gz
Total_Precipitation_Accumulation
0.07 0.10 0.14 0.16 0.12 0.09 0.07 0.09 0.11 0.16 0.16 0.18 0.19 0.18 0.21 0.23 0.27 0.30 0.30 0.29 0.29 0.28
0.03 0.08 0.10 0.09 0.07 0.06 0.06 0.07 0.08 0.11 0.14 0.15 0.18 0.20 0.22 0.21 0.23 0.27 0.27 0.29 0.29 0.24
0.06 0.08 0.07 0.06 0.05 0.04 0.05 0.05 0.06 0.08 0.09 0.11 0.15 0.18 0.21 0.19 0.22 0.24 0.28 0.29 0.30 0.27
0.05 0.05 0.06 0.05 0.05 0.04 0.04 0.04 0.05 0.08 0.09 0.08 0.08 0.10 0.16 0.19 0.19 0.24 0.24 0.23 0.28 0.31
0.05 0.05 0.05 0.05 0.05 0.05 0.04 0.05 0.06 0.07 0.06 0.05 0.04 0.04 0.06 0.10 0.14 0.17 0.18 0.19 0.20 0.17
0.04 0.04 0.06 0.07 0.07 0.07 0.07 0.08 0.07 0.05 0.05 0.06 0.05 0.05 0.04 0.06 0.11 0.13 0.16 0.17 0.18 0.18
0.08 0.07 0.07 0.06 0.06 0.06 0.07 0.07 0.06 0.08 0.08 0.07 0.06 0.08 0.11 0.14 0.16 0.16 0.17 0.18 0.20 0.20
0.08 0.09 0.07 0.05 0.07 0.07 0.06 0.06 0.04 0.08 0.15 0.17 0.17 0.16 0.13 0.11 0.12 0.15 0.19 0.21 0.23 0.26
0.08 0.08 0.09 0.08 0.05 0.08 0.08 0.08 0.12 0.11 0.11 0.14 0.18 0.36 0.28 0.18 0.15 0.17 0.21 0.26 0.33 0.41
0.13 0.20 0.20 0.15 0.13 0.11 0.15 0.24 0.23 0.22 0.26 0.25 0.24 0.35 0.29 0.34 0.36 0.42 0.47 0.48 0.44 0.36
0.48 0.52 0.60 0.75 0.63 0.64 0.52 0.46 0.54 0.56 0.58 0.64 0.76 0.80 0.68 0.54 0.44 0.46 0.47 0.44 0.39 0.32
0.70 0.74 0.84 1.06 1.14 0.80 0.97 0.78 0.78 0.68 0.55 0.59 0.71 0.66 0.49 0.44 0.39 0.29 0.19 0.14 0.07 0.03
0.75 0.73 0.89 0.99 0.98 0.72 0.61 0.65 0.58 0.63 0.60 0.51 0.43 0.31 0.19 0.10 0.08 0.05 0.02 0.00 0.00 0.00
0.73 0.45 0.61 0.69 0.62 0.47 0.37 0.42 0.43 0.39 0.32 0.22 0.13 0.06 0.02 0.01 0.01 0.00 0.00 0.00 0.00 0.00

GFSNIL_prec_precacc_075.txt.gz
Total_Precipitation_Accumulation
0.15 0.16 0.16 0.17 0.14 0.11 0.10 0.12 0.14 0.17 0.16 0.18 0.19 0.18 0.21 0.23 0.27 0.30 0.30 0.29 0.29 0.28
0.04 0.10 0.14 0.15 0.11 0.08 0.09 0.10 0.10 0.11 0.14 0.15 0.18 0.20 0.22 0.21 0.23 0.27 0.27 0.29 0.29 0.24
0.06 0.08 0.08 0.07 0.06 0.05 0.05 0.06 0.07 0.08 0.09 0.11 0.15 0.18 0.21 0.19 0.22 0.24 0.28 0.29 0.30 0.27
0.05 0.05 0.06 0.05 0.05 0.04 0.04 0.04 0.05 0.08 0.09 0.08 0.08 0.10 0.16 0.19 0.19 0.24 0.24 0.23 0.28 0.31
0.05 0.05 0.05 0.05 0.05 0.05 0.04 0.05 0.06 0.07 0.06 0.05 0.04 0.04 0.06 0.10 0.14 0.17 0.18 0.19 0.20 0.17
0.04 0.04 0.06 0.07 0.07 0.07 0.07 0.08 0.07 0.05 0.05 0.06 0.05 0.05 0.04 0.06 0.11 0.13 0.16 0.17 0.18 0.18
0.08 0.07 0.07 0.06 0.06 0.06 0.07 0.07 0.06 0.08 0.08 0.07 0.06 0.08 0.11 0.14 0.16 0.16 0.17 0.18 0.20 0.20
0.08 0.09 0.07 0.05 0.07 0.07 0.06 0.06 0.04 0.08 0.15 0.17 0.17 0.16 0.13 0.11 0.12 0.15 0.19 0.21 0.23 0.26
0.08 0.08 0.09 0.08 0.05 0.08 0.08 0.08 0.12 0.11 0.11 0.14 0.18 0.36 0.28 0.18 0.15 0.17 0.21 0.26 0.33 0.41
0.13 0.20 0.20 0.15 0.13 0.11 0.15 0.24 0.23 0.22 0.26 0.25 0.24 0.35 0.29 0.34 0.36 0.42 0.47 0.48 0.44 0.36
0.48 0.52 0.60 0.75 0.63 0.64 0.52 0.46 0.54 0.56 0.58 0.64 0.76 0.80 0.68 0.55 0.44 0.46 0.47 0.44 0.40 0.32
0.70 0.74 0.84 1.06 1.14 0.80 0.97 0.78 0.78 0.68 0.55 0.59 0.71 0.66 0.49 0.44 0.39 0.29 0.19 0.14 0.07 0.03
0.75 0.73 0.89 0.99 0.98 0.72 0.61 0.65 0.58 0.63 0.60 0.51 0.43 0.31 0.19 0.10 0.08 0.05 0.02 0.00 0.00 0.00
0.73 0.45 0.61 0.69 0.62 0.47 0.37 0.42 0.43 0.39 0.32 0.22 0.13 0.06 0.02 0.01 0.01 0.00 0.00 0.00 0.00 0.00

GFSNIL_prec_precacc_078.txt.gz
Total_Precipitation_Accumulation
0.16 0.19 0.19 0.21 0.22 0.21 0.18 0.18 0.17 0.19 0.17 0.19 0.19 0.18 0.21 0.23 0.27 0.30 0.30 0.29 0.29 0.28
0.04 0.10 0.16 0.18 0.18 0.15 0.14 0.14 0.11 0.12 0.14 0.15 0.18 0.20 0.22 0.21 0.23 0.27 0.27 0.29 0.29 0.24
0.06 0.08 0.08 0.07 0.07 0.06 0.07 0.07 0.07 0.08 0.09 0.11 0.15 0.18 0.21 0.19 0.22 0.24 0.28 0.29 0.30 0.27
0.05 0.05 0.06 0.05 0.05 0.05 0.04 0.04 0.05 0.08 0.09 0.08 0.08 0.10 0.16 0.19 0.19 0.24 0.24 0.23 0.28 0.31
0.05 0.05 0.05 0.05 0.05 0.05 0.04 0.05 0.06 0.07 0.06 0.05 0.04 0.04 0.06 0.10 0.14 0.17 0.18 0.19 0.20 0.17
0.04 0.04 0.06 0.07 0.07 0.07 0.07 0.08 0.07 0.05 0.05 0.06 0.05 0.05 0.04 0.06 0.11 0.13 0.16 0.17 0.18 0.18
0.08 0.07 0.07 0.06 0.06 0.06 0.07 0.07 0.06 0.08 0.08 0.07 0.06 0.08 0.11 0.14 0.16 0.16 0.17 0.18 0.20 0.20
0.08 0.09 0.07 0.05 0.07 0.07 0.06 0.06 0.04 0.08 0.15 0.17 0.17 0.16 0.13 0.11 0.12 0.15 0.19 0.21 0.23 0.26
0.08 0.08 0.09 0.08 0.05 0.08 0.08 0.08 0.12 0.11 0.11 0.14 0.18 0.36 0.28 0.18 0.15 0.17 0.21 0.26 0.33 0.41
0.13 0.20 0.20 0.15 0.13 0.11 0.15 0.24 0.23 0.22 0.26 0.25 0.24 0.35 0.29 0.34 0.36 0.42 0.47 0.48 0.44 0.37
0.48 0.52 0.60 0.75 0.63 0.64 0.52 0.46 0.54 0.56 0.58 0.64 0.76 0.80 0.68 0.55 0.44 0.46 0.48 0.45 0.40 0.33
0.70 0.74 0.84 1.06 1.14 0.80 0.97 0.78 0.78 0.68 0.55 0.59 0.71 0.66 0.49 0.45 0.39 0.29 0.19 0.14 0.07 0.03
0.75 0.73 0.89 0.99 0.98 0.72 0.61 0.65 0.58 0.63 0.60 0.51 0.43 0.31 0.19 0.10 0.08 0.05 0.02 0.00 0.00 0.01
0.73 0.45 0.61 0.69 0.62 0.47 0.37 0.42 0.43 0.39 0.32 0.22 0.13 0.06 0.02 0.01 0.01 0.00 0.00 0.00 0.00 0.00

GFSNIL_prec_precacc_081.txt.gz
Total_Precipitation_Accumulation
0.17 0.20 0.20 0.24 0.26 0.25 0.22 0.24 0.23 0.25 0.22 0.22 0.20 0.19 0.21 0.23 0.27 0.30 0.30 0.29 0.29 0.28
0.04 0.10 0.16 0.18 0.19 0.16 0.16 0.17 0.18 0.20 0.19 0.18 0.18 0.20 0.22 0.21 0.23 0.27 0.27 0.29 0.29 0.24
0.06 0.08 0.08 0.07 0.07 0.06 0.07 0.08 0.09 0.10 0.10 0.11 0.15 0.18 0.21 0.19 0.22 0.24 0.28 0.29 0.30 0.27
0.05 0.05 0.06 0.05 0.05 0.05 0.05 0.05 0.06 0.09 0.09 0.08 0.08 0.10 0.16 0.19 0.19 0.24 0.24 0.23 0.28 0.31
0.05 0.05 0.05 0.05 0.05 0.05 0.04 0.05 0.06 0.07 0.06 0.05 0.04 0.04 0.06 0.10 0.14 0.17 0.18 0.19 0.20 0.17
0.04 0.04 0.06 0.07 0.07 0.07 0.07 0.08 0.07 0.05 0.05 0.06 0.05 0.05 0.04 0.06 0.11 0.13 0.16 0.17 0.18 0.18
0.08 0.07 0.07 0.06 0.06 0.06 0.07 0.07 0.06 0.08 0.08 0.07 0.06 0.08 0.11 0.14 0.16 0.16 0.17 0.18 0.20 0.20
0.08 0.09 0.07 0.05 0.07 0.07 0.06 0.06 0.04 0.08 0.15 0.17 0.17 0.16 0.13 0.11 0.12 0.15 0.19 0.21 0.23 0.26
0.08 0.08 0.09 0.08 0.05 0.08 0.08 0.08 0.12 0.11 0.11 0.14 0.18 0.36 0.28 0.18 0.15 0.17 0.21 0.26 0.33 0.41
0.13 0.20 0.20 0.15 0.13 0.11 0.15 0.24 0.23 0.22 0.26 0.25 0.24 0.35 0.29 0.34 0.36 0.42 0.47 0.48 0.44 0.37
0.48 0.52 0.60 0.75 0.63 0.64 0.52 0.46 0.54 0.56 0.58 0.64 0.76 0.80 0.68 0.55 0.44 0.46 0.48 0.45 0.40 0.33
0.70 0.74 0.84 1.06 1.14 0.80 0.97 0.78 0.78 0.68 0.55 0.59 0.71 0.66 0.49 0.45 0.39 0.29 0.19 0.14 0.07 0.03
0.75 0.73 0.89 0.99 0.98 0.72 0.61 0.65 0.58 0.63 0.60 0.51 0.43 0.31 0.19 0.11 0.08 0.05 0.02 0.00 0.00 0.01
0.73 0.45 0.61 0.69 0.62 0.47 0.37 0.42 0.43 0.39 0.32 0.22 0.13 0.06 0.02 0.02 0.01 0.00 0.00 0.00 0.00 0.00

GFSNIL_prec_precacc_084.txt.gz
Total_Precipitation_Accumulation
0.20 0.21 0.24 0.28 0.30 0.28 0.25 0.30 0.32 0.34 0.33 0.30 0.26 0.21 0.22 0.24 0.28 0.31 0.31 0.29 0.29 0.28
0.05 0.11 0.16 0.19 0.20 0.19 0.22 0.23 0.26 0.29 0.30 0.25 0.21 0.21 0.22 0.21 0.23 0.27 0.27 0.29 0.29 0.24
0.06 0.08 0.08 0.07 0.07 0.06 0.08 0.10 0.10 0.12 0.12 0.14 0.18 0.19 0.21 0.19 0.22 0.24 0.28 0.29 0.30 0.27
0.05 0.05 0.06 0.05 0.05 0.05 0.05 0.05 0.06 0.09 0.09 0.08 0.08 0.10 0.16 0.19 0.19 0.24 0.24 0.23 0.28 0.31
0.05 0.05 0.05 0.05 0.05 0.05 0.04 0.05 0.06 0.07 0.06 0.05 0.04 0.04 0.06 0.10 0.14 0.17 0.18 0.19 0.20 0.17
0.04 0.04 0.06 0.07 0.07 0.07 0.07 0.08 0.07 0.05 0.05 0.06 0.05 0.05 0.04 0.06 0.11 0.13 0.16 0.17 0.18 0.18
0.08 0.07 0.07 0.06 0.06 0.06 0.07 0.07 0.06 0.08 0.08 0.07 0.06 0.08 0.11 0.14 0.16 0.16 0.17 0.18 0.20 0.20
0.08 0.09 0.07 0.05 0.07 0.07 0.06 0.06 0.04 0.08 0.15 0.17 0.17 0.16 0.13 0.11 0.12 0.15 0.19 0.21 0.23 0.26
0.08 0.08 0.09 0.08 0.05 0.08 0.08 0.08 0.12 0.11 0.11 0.14 0.18 0.36 0.28 0.18 0.15 0.17 0.21 0.26 0.33 0.41
0.13 0.20 0.20 0.15 0.13 0.11 0.15 0.24 0.23 0.22 0.26 0.25 0.24 0.35 0.29 0.34 0.36 0.42 0.47 0.48 0.44 0.37
0.48 0.52 0.60 0.75 0.63 0.64 0.52 0.46 0.54 0.56 0.58 0.64 0.76 0.80 0.68 0.55 0.44 0.46 0.48 0.45 0.40 0.33
0.70 0.74 0.84 1.06 1.14 0.80 0.97 0.78 0.78 0.68 0.55 0.59 0.71 0.66 0.49 0.45 0.39 0.29 0.19 0.14 0.07 0.03
0.75 0.73 0.89 0.99 0.98 0.72 0.61 0.65 0.58 0.63 0.60 0.51 0.43 0.31 0.19 0.11 0.08 0.05 0.02 0.00 0.00 0.01
0.73 0.45 0.61 0.69 0.62 0.47 0.37 0.42 0.43 0.39 0.32 0.22 0.13 0.06 0.03 0.02 0.01 0.00 0.00 0.00 0.00 0.00

GFSNIL_prec_precacc_087.txt.gz
Total_Precipitation_Accumulation
0.35 0.34 0.32 0.31 0.32 0.28 0.25 0.30 0.33 0.36 0.38 0.40 0.42 0.41 0.38 0.33 0.31 0.32 0.32 0.31 0.30 0.28
0.21 0.27 0.23 0.24 0.20 0.20 0.22 0.26 0.30 0.32 0.32 0.32 0.37 0.38 0.31 0.24 0.24 0.28 0.27 0.29 0.29 0.24
0.06 0.10 0.13 0.09 0.07 0.07 0.09 0.15 0.22 0.17 0.13 0.15 0.21 0.26 0.26 0.22 0.24 0.26 0.28 0.29 0.30 0.27
0.05 0.05 0.06 0.05 0.05 0.05 0.05 0.06 0.07 0.10 0.11 0.10 0.11 0.14 0.19 0.21 0.20 0.24 0.24 0.23 0.28 0.31
0.05 0.05 0.05 0.05 0.05 0.05 0.04 0.05 0.06 0.07 0.06 0.05 0.05 0.05 0.07 0.11 0.14 0.17 0.18 0.19 0.20 0.17
0.04 0.04 0.06 0.07 0.07 0.07 0.07 0.08 0.07 0.05 0.05 0.06 0.06 0.05 0.04 0.06 0.11 0.13 0.16 0.17 0.18 0.18
0.08 0.07 0.07 0.06 0.06 0.06 0.07 0.07 0.06 0.08 0.08 0.07 0.06 0.08 0.11 0.15 0.16 0.17 0.17 0.18 0.20 0.20
0.08 0.09 0.07 0.05 0.07 0.07 0.06 0.06 0.04 0.08 0.15 0.17 0.17 0.16 0.13 0.11 0.12 0.15 0.19 0.21 0.23 0.26
0.08 0.08 0.09 0.08 0.05 0.08 0.08 0.08 0.12 0.11 0.11 0.14 0.18 0.36 0.28 0.18 0.15 0.17 0.21 0.26 0.33 0.41
0.13 0.20 0.20 0.15 0.13 0.11 0.15 0.24 0.23 0.22 0.26 0.25 0.24 0.35 0.29 0.34 0.36 0.42 0.47 0.48 0.44 0.37
0.48 0.52 0.60 0.75 0.63 0.64 0.52 0.46 0.54 0.56 0.58 0.64 0.76 0.80 0.68 0.55 0.44 0.46 0.48 0.45 0.40 0.33
0.70 0.74 0.84 1.06 1.14 0.80 0.97 0.78 0.78 0.68 0.55 0.59 0.71 0.66 0.49 0.45 0.39 0.29 0.19 0.14 0.07 0.03
0.75 0.73 0.89 0.99 0.98 0.72 0.61 0.65 0.58 0.63 0.60 0.51 0.43 0.31 0.19 0.11 0.08 0.05 0.02 0.00 0.00 0.01
0.73 0.45 0.61 0.69 0.62 0.47 0.37 0.42 0.43 0.39 0.32 0.22 0.13 0.06 0.03 0.02 0.01 0.00 0.00 0.00 0.00 0.00

GFSNIL_prec_precacc_090.txt.gz
Total_Precipitation_Accumulation
0.77 0.68 0.42 0.38 0.37 0.32 0.26 0.31 0.34 0.37 0.38 0.42 0.46 0.47 0.46 0.42 0.39 0.39 0.36 0.34 0.36 0.37
0.37 0.43 0.39 0.42 0.23 0.20 0.22 0.26 0.36 0.34 0.32 0.32 0.38 0.44 0.46 0.37 0.36 0.37 0.30 0.29 0.29 0.24
0.09 0.19 0.26 0.28 0.15 0.08 0.15 0.20 0.50 0.50 0.27 0.21 0.22 0.31 0.40 0.34 0.30 0.29 0.30 0.29 0.30 0.27
0.05 0.05 0.06 0.06 0.11 0.10 0.10 0.10 0.16 0.20 0.21 0.13 0.12 0.16 0.23 0.26 0.27 0.28 0.26 0.24 0.28 0.31
0.05 0.05 0.05 0.05 0.05 0.05 0.04 0.05 0.06 0.08 0.07 0.07 0.07 0.06 0.07 0.12 0.16 0.19 0.20 0.20 0.20 0.17
0.04 0.04 0.06 0.07 0.07 0.07 0.07 0.08 0.07 0.05 0.05 0.06 0.06 0.06 0.06 0.08 0.12 0.14 0.16 0.17 0.18 0.18
0.08 0.07 0.07 0.06 0.06 0.06 0.07 0.07 0.06 0.08 0.08 0.07 0.06 0.08 0.12 0.16 0.17 0.17 0.18 0.19 0.20 0.20
0.08 0.09 0.07 0.05 0.07 0.07 0.06 0.06 0.04 0.08 0.15 0.17 0.17 0.16 0.13 0.12 0.13 0.16 0.21 0.23 0.25 0.26
0.08 0.08 0.09 0.08 0.05 0.08 0.08 0.08 0.12 0.11 0.11 0.14 0.18 0.36 0.28 0.18 0.16 0.17 0.22 0.26 0.33 0.41
0.13 0.20 0.20 0.15 0.13 0.11 0.15 0.24 0.23 0.22 0.26 0.25 0.24 0.35 0.29 0.34 0.36 0.42 0.47 0.48 0.44 0.37
0.48 0.52 0.60 0.75 0.63 0.64 0.52 0.46 0.54 0.56 0.58 0.64 0.76 0.80 0.68 0.55 0.44 0.46 0.48 0.45 0.40 0.33
0.70 0.74 0.84 1.06 1.14 0.80 0.97 0.78 0.78 0.68 0.55 0.59 0.71 0.66 0.49 0.45 0.39 0.29 0.19 0.14 0.07 0.03
0.75 0.73 0.89 0.99 0.98 0.72 0.61 0.66 0.58 0.63 0.60 0.51 0.43 0.31 0.19 0.11 0.08 0.05 0.02 0.00 0.00 0.01
0.73 0.45 0.61 0.69 0.62 0.47 0.37 0.42 0.43 0.39 0.32 0.22 0.13 0.06 0.03 0.02 0.01 0.00 0.00 0.00 0.00 0.00

GFSNIL_prec_precacc_093.txt.gz
Total_Precipitation_Accumulation
1.00 0.90 0.62 0.57 0.61 0.53 0.40 0.37 0.40 0.42 0.40 0.43 0.47 0.49 0.48 0.43 0.40 0.40 0.37 0.36 0.40 0.46
0.53 0.56 0.45 0.47 0.26 0.23 0.26 0.30 0.39 0.37 0.34 0.33 0.39 0.48 0.47 0.40 0.39 0.43 0.38 0.34 0.32 0.29
0.12 0.24 0.37 0.39 0.29 0.13 0.21 0.32 0.69 0.70 0.36 0.24 0.26 0.36 0.43 0.38 0.36 0.36 0.43 0.42 0.36 0.31
0.05 0.05 0.07 0.08 0.17 0.20 0.22 0.23 0.33 0.46 0.49 0.34 0.23 0.26 0.32 0.33 0.33 0.36 0.34 0.32 0.35 0.37
0.05 0.05 0.05 0.05 0.05 0.05 0.04 0.05 0.07 0.09 0.09 0.08 0.09 0.10 0.10 0.14 0.19 0.23 0.26 0.26 0.25 0.22
0.04 0.04 0.06 0.07 0.07 0.07 0.07 0.08 0.07 0.05 0.05 0.06 0.06 0.07 0.08 0.10 0.14 0.17 0.18 0.20 0.21 0.21
0.08 0.07 0.07 0.06 0.06 0.06 0.07 0.07 0.06 0.08 0.08 0.07 0.06 0.08 0.13 0.17 0.19 0.21 0.22 0.24 0.26 0.24
0.08 0.09 0.07 0.05 0.07 0.07 0.06 0.06 0.04 0.08 0.15 0.17 0.17 0.16 0.13 0.13 0.14 0.18 0.22 0.26 0.28 0.28
0.08 0.08 0.09 0.08 0.05 0.08 0.08 0.08 0.12 0.11 0.11 0.14 0.18 0.36 0.28 0.18 0.16 0.18 0.23 0.28 0.35 0.43
0.13 0.20 0.20 0.15 0.13 0.11 0.15 0.24 0.23 0.22 0.26 0.25 0.24 0.35 0.29 0.34 0.36 0.42 0.47 0.48 0.45 0.37
0.48 0.52 0.60 0.75 0.63 0.64 0.52 0.46 0.54 0.56 0.58 0.64 0.76 0.80 0.68 0.55 0.44 0.46 0.48 0.45 0.40 0.33
0.70 0.74 0.84 1.06 1.14 0.80 0.97 0.78 0.78 0.68 0.55 0.59 0.71 0.66 0.49 0.45 0.39 0.29 0.19 0.14 0.07 0.03
0.75 0.73 0.89 0.99 0.98 0.72 0.61 0.66 0.58 0.63 0.60 0.51 0.43 0.31 0.19 0.11 0.08 0.05 0.02 0.00 0.00 0.01
0.73 0.45 0.61 0.69 0.62 0.47 0.37 0.42 0.43 0.39 0.32 0.22 0.13 0.07 0.03 0.02 0.01 0.00 0.00 0.00 0.00 0.00

GFSNIL_prec_precacc_096.txt.gz
Total_Precipitation_Accumulation
1.02 0.97 0.81 0.90 0.89 0.77 0.71 0.68 0.69 0.76 0.58 0.55 0.57 0.61 0.59 0.50 0.47 0.47 0.46 0.44 0.45 0.47
0.59 0.65 0.56 0.63 0.46 0.40 0.50 0.56 0.52 0.50 0.50 0.48 0.50 0.54 0.52 0.44 0.43 0.48 0.43 0.39 0.36 0.31
0.25 0.39 0.48 0.47 0.40 0.20 0.31 0.46 0.84 0.83 0.47 0.34 0.34 0.43 0.50 0.42 0.38 0.38 0.44 0.47 0.51 0.52
0.12 0.15 0.12 0.10 0.20 0.23 0.25 0.31 0.48 0.65 0.80 0.66 0.44 0.38 0.42 0.44 0.45 0.46 0.44 0.40 0.38 0.43
0.05 0.05 0.06 0.05 0.05 0.05 0.04 0.05 0.08 0.11 0.13 0.15 0.29 0.33 0.28 0.28 0.27 0.30 0.34 0.36 0.34 0.26
0.04 0.04 0.06 0.07 0.07 0.07 0.07 0.08 0.07 0.05 0.05 0.06 0.06 0.07 0.08 0.11 0.15 0.18 0.20 0.22 0.24 0.25
0.08 0.07 0.07 0.06 0.06 0.06 0.07 0.07 0.06 0.08 0.08 0.07 0.06 0.08 0.13 0.17 0.20 0.22 0.24 0.26 0.28 0.27
0.08 0.09 0.07 0.05 0.07 0.07 0.06 0.06 0.04 0.08 0.15 0.17 0.17 0.16 0.13 0.13 0.14 0.18 0.23 0.27 0.29 0.31
0.08 0.08 0.09 0.08 0.05 0.08 0.08 0.08 0.12 0.11 0.11 0.14 0.18 0.36 0.28 0.18 0.16 0.18 0.23 0.28 0.36 0.44
0.13 0.20 0.20 0.15 0.13 0.11 0.15 0.24 0.23 0.22 0.26 0.25 0.24 0.35 0.29 0.34 0.36 0.42 0.47 0.48 0.45 0.37
0.48 0.52 0.60 0.75 0.63 0.64 0.52 0.46 0.54 0.56 0.58 0.64 0.76 0.80 0.68 0.55 0.44 0.46 0.48 0.45 0.40 0.33
0.70 0.74 0.84 1.06 1.14 0.80 0.97 0.78 0.78 0.68 0.55 0.59 0.71 0.67 0.50 0.45 0.39 0.29 0.19 0.14 0.07 0.03
0.75 0.73 0.89 0.99 0.98 0.72 0.61 0.66 0.58 0.63 0.60 0.51 0.43 0.31 0.20 0.11 0.08 0.05 0.02 0.00 0.00 0.01
0.73 0.45 0.61 0.69 0.62 0.47 0.37 0.42 0.43 0.39 0.32 0.22 0.14 0.07 0.03 0.03 0.01 0.00 0.01 0.01 0.00 0.00

GFSNIL_prec_precacc_099.txt.gz
Total_Precipitation_Accumulation
1.07 1.01 0.86 0.95 1.08 0.98 0.89 0.88 0.91 0.96 0.82 0.76 0.78 0.87 0.81 0.66 0.59 0.56 0.52 0.50 0.51 0.55
0.65 0.76 0.64 0.69 0.62 0.63 0.76 0.89 0.88 0.94 0.98 0.85 0.87 0.84 0.73 0.62 0.59 0.63 0.54 0.47 0.43 0.38
0.29 0.44 0.55 0.55 0.51 0.34 0.45 0.64 1.14 1.06 0.68 0.57 0.58 0.71 0.81 0.67 0.54 0.55 0.58 0.57 0.60 0.60
0.17 0.24 0.20 0.17 0.28 0.31 0.31 0.39 0.65 0.91 1.03 0.87 0.68 0.60 0.62 0.64 0.66 0.66 0.60 0.54 0.46 0.46
0.05 0.06 0.07 0.06 0.06 0.05 0.05 0.06 0.09 0.14 0.19 0.25 0.40 0.50 0.46 0.42 0.40 0.43 0.45 0.47 0.50 0.40
0.04 0.04 0.06 0.07 0.07 0.07 0.07 0.08 0.07 0.05 0.05 0.06 0.06 0.07 0.10 0.16 0.22 0.24 0.25 0.26 0.28 0.30
0.08 0.07 0.07 0.06 0.06 0.06 0.07 0.07 0.06 0.08 0.08 0.07 0.06 0.08 0.13 0.17 0.20 0.23 0.26 0.30 0.31 0.31
0.08 0.09 0.07 0.05 0.07 0.07 0.06 0.06 0.04 0.08 0.15 0.17 0.17 0.16 0.13 0.13 0.14 0.18 0.23 0.27 0.31 0.33
0.08 0.08 0.09 0.08 0.05 0.08 0.08 0.08 0.12 0.11 0.11 0.14 0.18 0.36 0.28 0.18 0.16 0.18 0.23 0.28 0.36 0.45
0.13 0.20 0.20 0.15 0.13 0.11 0.15 0.24 0.23 0.22 0.26 0.25 0.24 0.35 0.29 0.34 0.36 0.42 0.47 0.48 0.45 0.37
0.48 0.52 0.60 0.75 0.63 0.64 0.52 0.46 0.54 0.56 0.58 0.64 0.76 0.80 0.68 0.55 0.44 0.46 0.48 0.45 0.40 0.33
0.70 0.74 0.84 1.06 1.14 0.80 0.97 0.78 0.78 0.68 0.55 0.59 0.71 0.67 0.50 0.45 0.39 0.29 0.19 0.14 0.07 0.03
0.75 0.73 0.89 0.99 0.98 0.72 0.61 0.66 0.58 0.63 0.60 0.51 0.43 0.31 0.20 0.11 0.08 0.05 0.02 0.00 0.00 0.01
0.73 0.45 0.61 0.69 0.62 0.47 0.37 0.42 0.43 0.39 0.32 0.22 0.14 0.07 0.03 0.03 0.02 0.01 0.01 0.01 0.00 0.00

GFSNIL_prec_precacc_102.txt.gz
Total_Precipitation_Accumulation
1.08 1.02 0.88 0.99 1.10 1.00 0.93 0.91 0.95 1.00 0.86 0.81 0.87 1.04 1.09 0.85 0.67 0.62 0.56 0.53 0.54 0.60
0.68 0.81 0.70 0.75 0.68 0.67 0.80 0.94 1.04 1.12 1.20 1.11 1.08 1.08 1.04 0.96 0.79 0.74 0.61 0.53 0.52 0.48
0.32 0.51 0.64 0.61 0.58 0.38 0.47 0.68 1.18 1.13 0.84 0.84 0.87 1.02 1.27 1.16 0.88 0.77 0.73 0.68 0.70 0.71
0.18 0.27 0.22 0.18 0.30 0.33 0.35 0.45 0.71 1.00 1.14 1.00 0.84 0.80 0.83 0.81 0.93 1.06 0.92 0.76 0.68 0.64
0.05 0.06 0.08 0.07 0.06 0.05 0.05 0.06 0.09 0.14 0.22 0.30 0.46 0.58 0.60 0.61 0.62 0.63 0.63 0.65 0.68 0.60
0.04 0.04 0.06 0.07 0.07 0.07 0.07 0.08 0.07 0.05 0.05 0.06 0.06 0.07 0.11 0.20 0.33 0.43 0.52 0.54 0.48 0.41
0.08 0.07 0.07 0.06 0.06 0.06 0.07 0.07 0.06 0.08 0.08 0.07 0.06 0.08 0.13 0.17 0.20 0.23 0.28 0.36 0.47 0.52
0.08 0.09 0.07 0.05 0.07 0.07 0.06 0.06 0.04 0.08 0.15 0.17 0.17 0.16 0.13 0.13 0.14 0.18 0.23 0.27 0.31 0.33
0.08 0.08 0.09 0.08 0.05 0.08 0.08 0.08 0.12 0.11 0.11 0.14 0.18 0.36 0.28 0.18 0.16 0.18 0.23 0.28 0.36 0.45
0.13 0.20 0.20 0.15 0.13 0.11 0.15 0.24 0.23 0.22 0.26 0.25 0.24 0.35 0.29 0.34 0.36 0.42 0.47 0.48 0.45 0.37
0.48 0.52 0.60 0.75 0.63 0.64 0.52 0.46 0.54 0.56 0.58 0.64 0.76 0.80 0.68 0.55 0.44 0.46 0.48 0.45 0.40 0.33
0.70 0.74 0.84 1.06 1.14 0.80 0.97 0.78 0.78 0.68 0.55 0.59 0.71 0.67 0.50 0.45 0.39 0.29 0.19 0.14 0.07 0.03
0.75 0.73 0.89 0.99 0.98 0.72 0.61 0.66 0.58 0.63 0.60 0.51 0.43 0.31 0.20 0.11 0.08 0.05 0.02 0.00 0.00 0.02
0.73 0.45 0.61 0.69 0.62 0.47 0.37 0.42 0.43 0.39 0.32 0.22 0.14 0.07 0.03 0.03 0.02 0.01 0.02 0.01 0.01 0.00

GFSNIL_prec_precacc_105.txt.gz
Total_Precipitation_Accumulation
1.08 1.02 0.88 0.99 1.11 1.03 0.94 0.92 0.95 1.01 0.88 0.83 0.89 1.06 1.13 0.95 0.79 0.76 0.73 0.67 0.63 0.66
0.68 0.81 0.71 0.77 0.71 0.72 0.86 0.97 1.06 1.16 1.23 1.15 1.15 1.22 1.24 1.14 0.97 0.89 0.76 0.67 0.63 0.55
0.32 0.52 0.68 0.65 0.61 0.43 0.51 0.70 1.21 1.16 0.88 0.88 0.94 1.11 1.40 1.36 1.17 1.11 1.01 0.82 0.79 0.78
0.18 0.27 0.25 0.24 0.32 0.34 0.36 0.45 0.72 1.00 1.16 1.04 0.89 0.87 0.91 0.92 1.02 1.21 1.22 1.22 1.09 0.85
0.05 0.06 0.08 0.07 0.07 0.06 0.05 0.06 0.09 0.14 0.22 0.30 0.47 0.60 0.62 0.64 0.67 0.73 0.81 0.86 0.94 0.86
0.04 0.04 0.06 0.07 0.07 0.07 0.07 0.08 0.07 0.05 0.05 0.06 0.06 0.07 0.11 0.20 0.33 0.47 0.60 0.68 0.68 0.62
0.08 0.07 0.07 0.06 0.06 0.06 0.07 0.07 0.06 0.08 0.08 0.07 0.06 0.08 0.13 0.17 0.20 0.23 0.28 0.36 0.48 0.58
0.08 0.09 0.07 0.05 0.07 0.07 0.06 0.06 0.04 0.08 0.15 0.17 0.17 0.16 0.13 0.13 0.14 0.18 0.23 0.27 0.31 0.33
0.08 0.08 0.09 0.08 0.05 0.08 0.08 0.08 0.12 0.11 0.11 0.14 0.18 0.36 0.28 0.18 0.16 0.18 0.23 0.28 0.36 0.45
0.13 0.20 0.20 0.15 0.13 0.11 0.15 0.24 0.23 0.22 0.26 0.25 0.24 0.35 0.29 0.34 0.36 0.42 0.47 0.48 0.45 0.37
0.48 0.52 0.60 0.75 0.63 0.64 0.52 0.46 0.54 0.56 0.58 0.64 0.76 0.80 0.68 0.55 0.44 0.46 0.48 0.45 0.40 0.33
0.70 0.74 0.84 1.06 1.14 0.80 0.97 0.78 0.78 0.68 0.55 0.59 0.71 0.67 0.50 0.45 0.39 0.29 0.19 0.14 0.07 0.03
0.75 0.73 0.89 0.99 0.98 0.72 0.61 0.66 0.58 0.63 0.60 0.51 0.43 0.31 0.20 0.11 0.08 0.05 0.02 0.00 0.00 0.02
0.73 0.45 0.61 0.69 0.62 0.47 0.37 0.42 0.43 0.39 0.32 0.22 0.14 0.07 0.03 0.03 0.02 0.01 0.02 0.01 0.01 0.00

GFSNIL_prec_precacc_108.txt.gz
Total_Precipitation_Accumulation
1.09 1.02 0.89 0.99 1.12 1.03 0.95 0.93 0.95 1.01 0.89 0.85 0.91 1.08 1.14 0.96 0.81 0.77 0.75 0.69 0.65 0.68
0.69 0.81 0.72 0.78 0.71 0.72 0.87 0.98 1.07 1.16 1.24 1.15 1.15 1.23 1.25 1.19 1.06 1.00 0.83 0.72 0.71 0.70
0.32 0.52 0.68 0.65 0.61 0.43 0.51 0.70 1.21 1.17 0.88 0.89 0.94 1.12 1.41 1.39 1.21 1.16 1.14 1.04 0.98 0.93
0.18 0.27 0.25 0.24 0.32 0.34 0.36 0.46 0.72 1.00 1.16 1.04 0.89 0.87 0.93 0.94 1.03 1.22 1.24 1.26 1.24 1.12
0.06 0.06 0.08 0.07 0.07 0.06 0.05 0.06 0.09 0.14 0.22 0.30 0.47 0.60 0.62 0.64 0.67 0.74 0.82 0.89 1.01 0.96
0.04 0.04 0.06 0.07 0.07 0.07 0.07 0.08 0.07 0.05 0.05 0.06 0.06 0.07 0.11 0.20 0.33 0.47 0.60 0.68 0.70 0.65
0.08 0.07 0.07 0.06 0.06 0.06 0.07 0.07 0.06 0.08 0.08 0.07 0.06 0.08 0.13 0.17 0.20 0.23 0.28 0.36 0.48 0.58
0.08 0.09 0.07 0.05 0.07 0.07 0.06 0.06 0.04 0.08 0.15 0.17 0.17 0.16 0.13 0.13 0.14 0.18 0.23 0.27 0.31 0.33
0.08 0.08 0.09 0.08 0.05 0.08 0.08 0.08 0.12 0.11 0.11 0.14 0.18 0.36 0.28 0.18 0.16 0.18 0.23 0.28 0.36 0.45
0.13 0.20 0.20 0.15 0.13 0.11 0.15 0.24 0.23 0.22 0.26 0.25 0.24 0.35 0.29 0.34 0.36 0.42 0.47 0.48 0.45 0.37
0.48 0.52 0.60 0.75 0.63 0.64 0.52 0.46 0.54 0.56 0.58 0.64 0.76 0.80 0.68 0.55 0.44 0.46 0.48 0.45 0.40 0.33
0.70 0.74 0.84 1.06 1.14 0.80 0.97 0.78 0.78 0.68 0.55 0.59 0.71 0.67 0.50 0.45 0.39 0.29 0.19 0.14 0.07 0.03
0.75 0.73 0.89 0.99 0.98 0.72 0.61 0.66 0.58 0.63 0.60 0.51 0.43 0.31 0.20 0.11 0.08 0.05 0.02 0.00 0.00 0.02
0.73 0.45 0.61 0.69 0.62 0.47 0.37 0.42 0.43 0.39 0.32 0.22 0.14 0.07 0.03 0.03 0.02 0.01 0.02 0.01 0.01 0.00

GFSNIL_prec_precacc_111.txt.gz
Total_Precipitation_Accumulation
1.33 1.22 1.06 1.06 1.13 1.04 0.96 0.93 0.96 1.01 0.89 0.85 0.92 1.09 1.15 0.97 0.81 0.79 0.77 0.72 0.68 0.71
0.74 0.84 0.73 0.78 0.71 0.72 0.87 0.98 1.07 1.16 1.24 1.15 1.15 1.23 1.26 1.20 1.07 1.01 0.85 0.77 0.79 0.80
0.32 0.52 0.68 0.65 0.61 0.43 0.51 0.70 1.21 1.17 0.88 0.89 0.94 1.12 1.41 1.39 1.22 1.18 1.16 1.07 1.04 1.02
0.18 0.27 0.25 0.24 0.32 0.34 0.36 0.46 0.72 1.00 1.16 1.04 0.89 0.87 0.93 0.94 1.03 1.22 1.24 1.26 1.25 1.13
0.06 0.06 0.08 0.07 0.07 0.06 0.05 0.06 0.09 0.14 0.22 0.30 0.47 0.60 0.62 0.64 0.68 0.74 0.82 0.89 1.02 0.97
0.04 0.04 0.06 0.07 0.07 0.07 0.07 0.08 0.07 0.05 0.05 0.06 0.06 0.07 0.11 0.20 0.33 0.47 0.60 0.68 0.70 0.65
0.08 0.07 0.07 0.06 0.06 0.06 0.07 0.07 0.06 0.08 0.08 0.07 0.06 0.08 0.13 0.17 0.20 0.23 0.28 0.36 0.48 0.58
0.08 0.09 0.07 0.05 0.07 0.07 0.06 0.06 0.04 0.08 0.15 0.17 0.17 0.16 0.13 0.13 0.14 0.18 0.23 0.27 0.31 0.33
0.08 0.08 0.09 0.08 0.05 0.08 0.08 0.08 0.12 0.11 0.11 0.14 0.18 0.36 0.28 0.18 0.16 0.18 0.23 0.28 0.36 0.45
0.13 0.20 0.20 0.15 0.13 0.11 0.15 0.24 0.23 0.22 0.26 0.25 0.24 0.35 0.29 0.34 0.36 0.42 0.47 0.48 0.45 0.37
0.48 0.52 0.60 0.75 0.63 0.64 0.52 0.46 0.54 0.56 0.58 0.64 0.76 0.80 0.68 0.55 0.44 0.46 0.48 0.45 0.40 0.33
0.70 0.74 0.84 1.06 1.14 0.80 0.97 0.78 0.78 0.68 0.55 0.59 0.71 0.67 0.50 0.45 0.39 0.29 0.19 0.14 0.07 0.03
0.75 0.73 0.89 0.99 0.98 0.72 0.61 0.66 0.58 0.63 0.60 0.51 0.43 0.31 0.20 0.11 0.08 0.05 0.02 0.00 0.00 0.02
0.73 0.45 0.61 0.69 0.62 0.47 0.37 0.42 0.43 0.39 0.32 0.22 0.14 0.07 0.03 0.03 0.02 0.01 0.02 0.01 0.01 0.00

GFSNIL_prec_precacc_114.txt.gz
Total_Precipitation_Accumulation
1.43 1.41 1.30 1.37 1.41 1.38 1.26 1.11 1.02 1.02 0.89 0.85 0.92 1.09 1.15 0.98 0.83 0.80 0.78 0.74 0.71 0.75
0.88 0.95 0.77 0.83 0.77 0.76 0.89 0.98 1.07 1.16 1.24 1.15 1.15 1.23 1.26 1.20 1.08 1.02 0.87 0.79 0.80 0.83
0.32 0.52 0.68 0.65 0.61 0.43 0.51 0.70 1.21 1.17 0.88 0.89 0.94 1.12 1.41 1.39 1.22 1.19 1.17 1.08 1.06 1.03
0.18 0.27 0.25 0.24 0.32 0.34 0.36 0.46 0.72 1.00 1.16 1.04 0.89 0.87 0.93 0.94 1.03 1.22 1.24 1.26 1.25 1.13
0.06 0.06 0.08 0.07 0.07 0.06 0.05 0.06 0.09 0.14 0.22 0.30 0.47 0.60 0.62 0.64 0.68 0.74 0.82 0.89 1.02 0.97
0.04 0.04 0.06 0.07 0.07 0.07 0.07 0.08 0.07 0.05 0.05 0.06 0.06 0.07 0.11 0.20 0.33 0.47 0.60 0.69 0.70 0.66
0.08 0.07 0.07 0.06 0.06 0.06 0.07 0.07 0.06 0.08 0.08 0.07 0.06 0.08 0.13 0.17 0.20 0.23 0.28 0.36 0.48 0.58
0.08 0.09 0.07 0.05 0.07 0.07 0.06 0.06 0.04 0.08 0.15 0.17 0.17 0.16 0.13 0.13 0.14 0.18 0.23 0.27 0.31 0.33
0.08 0.08 0.09 0.08 0.05 0.08 0.08 0.08 0.12 0.11 0.11 0.14 0.18 0.36 0.28 0.18 0.16 0.18 0.23 0.28 0.36 0.45
0.13 0.20 0.20 0.15 0.13 0.11 0.15 0.24 0.23 0.22 0.26 0.25 0.24 0.35 0.29 0.34 0.36 0.42 0.47 0.48 0.45 0.37
0.48 0.52 0.60 0.75 0.63 0.64 0.52 0.46 0.54 0.56 0.58 0.64 0.76 0.80 0.68 0.55 0.44 0.46 0.48 0.45 0.40 0.33
0.70 0.74 0.84 1.06 1.14 0.80 0.97 0.78 0.78 0.68 0.55 0.59 0.71 0.67 0.50 0.45 0.39 0.29 0.19 0.14 0.07 0.03
0.75 0.73 0.89 0.99 0.98 0.72 0.61 0.66 0.58 0.63 0.60 0.51 0.43 0.31 0.20 0.11 0.08 0.05 0.02 0.00 0.00 0.02
0.73 0.45 0.61 0.69 0.62 0.47 0.37 0.42 0.43 0.39 0.32 0.22 0.14 0.07 0.03 0.03 0.02 0.01 0.02 0.01 0.01 0.00

GFSNIL_prec_precacc_117.txt.gz
Total_Precipitation_Accumulation
1.44 1.46 1.53 1.48 1.43 1.39 1.40 1.37 1.37 1.40 1.20 1.15 1.11 1.14 1.16 0.98 0.83 0.80 0.78 0.74 0.71 0.75
0.89 0.96 0.84 0.86 0.77 0.78 0.95 1.05 1.12 1.20 1.26 1.17 1.16 1.23 1.26 1.20 1.08 1.02 0.87 0.80 0.81 0.83
0.32 0.52 0.68 0.65 0.61 0.43 0.51 0.70 1.21 1.17 0.88 0.89 0.94 1.12 1.41 1.39 1.22 1.19 1.17 1.08 1.06 1.03
0.18 0.27 0.25 0.24 0.32 0.34 0.36 0.46 0.72 1.00 1.16 1.04 0.89 0.87 0.93 0.94 1.03 1.22 1.24 1.26 1.25 1.13
0.06 0.06 0.08 0.07 0.07 0.06 0.05 0.06 0.09 0.14 0.22 0.30 0.47 0.60 0.62 0.64 0.68 0.74 0.82 0.89 1.02 0.97
0.04 0.04 0.06 0.07 0.07 0.07 0.07 0.08 0.07 0.05 0.05 0.06 0.06 0.07 0.11 0.20 0.33 0.47 0.60 0.69 0.70 0.66
0.08 0.07 0.07 0.06 0.06 0.06 0.07 0.07 0.06 0.08 0.08 0.07 0.06 0.08 0.13 0.17 0.20 0.23 0.28 0.36 0.48 0.58
0.08 0.09 0.07 0.05 0.07 0.07 0.06 0.06 0.04 0.08 0.15 0.17 0.17 0.16 0.13 0.13 0.14 0.18 0.23 0.27 0.31 0.33
0.08 0.08 0.09 0.08 0.05 0.08 0.08 0.08 0.12 0.11 0.11 0.14 0.18 0.36 0.28 0.18 0.16 0.18 0.23 0.28 0.36 0.45
0.13 0.20 0.20 0.15 0.13 0.11 0.15 0.24 0.23 0.22 0.26 0.25 0.24 0.35 0.29 0.34 0.36 0.42 0.47 0.48 0.45 0.37
0.48 0.52 0.60 0.75 0.63 0.64 0.52 0.46 0.54 0.56 0.58 0.64 0.76 0.80 0.68 0.55 0.44 0.46 0.48 0.45 0.40 0.33
0.70 0.74 0.84 1.06 1.14 0.80 0.97 0.78 0.78 0.68 0.55 0.59 0.71 0.67 0.50 0.45 0.39 0.29 0.19 0.14 0.07 0.03
0.75 0.73 0.89 0.99 0.98 0.72 0.61 0.66 0.58 0.63 0.60 0.51 0.43 0.31 0.20 0.11 0.08 0.05 0.02 0.00 0.00 0.02
0.73 0.45 0.61 0.69 0.62 0.47 0.37 0.42 0.43 0.39 0.32 0.22 0.14 0.07 0.03 0.03 0.02 0.01 0.02 0.01 0.01 0.00

GFSNIL_prec_precacc_120.txt.gz
Total_Precipitation_Accumulation
1.45 1.46 1.55 1.54 1.50 1.43 1.40 1.37 1.37 1.41 1.23 1.23 1.35 1.57 1.70 1.53 1.28 1.07 0.91 0.78 0.72 0.76
0.89 0.96 0.84 0.88 0.78 0.78 0.95 1.05 1.12 1.22 1.30 1.21 1.23 1.29 1.34 1.29 1.16 1.06 0.89 0.80 0.81 0.83
0.32 0.52 0.68 0.65 0.61 0.43 0.51 0.70 1.21 1.17 0.88 0.89 0.94 1.12 1.41 1.40 1.22 1.19 1.17 1.08 1.06 1.03
0.18 0.27 0.25 0.24 0.32 0.34 0.36 0.46 0.72 1.00 1.16 1.04 0.89 0.87 0.93 0.94 1.03 1.22 1.24 1.26 1.25 1.13
0.06 0.06 0.08 0.07 0.07 0.06 0.05 0.06 0.09 0.14 0.22 0.30 0.47 0.60 0.62 0.64 0.68 0.74 0.82 0.89 1.02 0.97
0.04 0.04 0.06 0.07 0.07 0.07 0.07 0.08 0.07 0.05 0.05 0.06 0.06 0.07 0.11 0.20 0.33 0.47 0.60 0.69 0.70 0.66
0.08 0.07 0.07 0.06 0.06 0.06 0.07 0.07 0.06 0.08 0.08 0.07 0.06 0.08 0.13 0.17 0.20 0.23 0.28 0.36 0.48 0.58
0.08 0.09 0.07 0.05 0.07 0.07 0.06 0.06 0.04 0.08 0.15 0.17 0.17 0.16 0.13 0.13 0.14 0.18 0.23 0.27 0.31 0.33
0.08 0.08 0.09 0.08 0.05 0.08 0.08 0.08 0.12 0.11 0.11 0.14 0.18 0.36 0.28 0.18 0.16 0.18 0.23 0.28 0.36 0.45
0.13 0.20 0.20 0.15 0.13 0.11 0.15 0.24 0.23 0.22 0.26 0.25 0.24 0.35 0.29 0.34 0.36 0.42 0.47 0.48 0.45 0.37
0.48 0.52 0.60 0.75 0.63 0.64 0.52 0.46 0.54 0.56 0.58 0.64 0.76 0.80 0.68 0.55 0.44 0.46 0.48 0.45 0.40 0.33
0.70 0.74 0.84 1.06 1.14 0.80 0.97 0.78 0.78 0.68 0.55 0.59 0.71 0.67 0.50 0.45 0.39 0.29 0.19 0.14 0.07 0.03
0.75 0.73 0.89 0.99 0.98 0.72 0.61 0.66 0.58 0.63 0.60 0.51 0.43 0.31 0.20 0.11 0.08 0.05 0.02 0.00 0.00 0.02
0.73 0.45 0.61 0.69 0.62 0.47 0.37 0.42 0.43 0.39 0.32 0.22 0.14 0.07 0.03 0.03 0.02 0.01 0.02 0.01 0.01 0.00

GFSNIL_prec_precacc_123.txt.gz
Total_Precipitation_Accumulation
1.45 1.46 1.55 1.54 1.51 1.45 1.41 1.37 1.37 1.41 1.25 1.26 1.38 1.57 1.70 1.56 1.42 1.36 1.35 1.34 1.36 1.34
0.89 0.96 0.84 0.88 0.78 0.78 0.95 1.05 1.12 1.22 1.32 1.26 1.29 1.33 1.34 1.29 1.20 1.15 1.01 0.95 0.99 1.02
0.32 0.52 0.68 0.65 0.61 0.43 0.51 0.70 1.21 1.17 0.88 0.89 0.94 1.13 1.41 1.40 1.22 1.19 1.18 1.09 1.08 1.05
0.18 0.27 0.25 0.24 0.32 0.34 0.36 0.46 0.72 1.00 1.16 1.04 0.89 0.87 0.93 0.94 1.03 1.22 1.24 1.26 1.25 1.13
0.06 0.06 0.08 0.07 0.07 0.06 0.05 0.06 0.09 0.14 0.22 0.30 0.47 0.60 0.62 0.64 0.68 0.74 0.82 0.89 1.02 0.97
0.04 0.04 0.06 0.07 0.07 0.07 0.07 0.08 0.07 0.05 0.05 0.06 0.06 0.07 0.11 0.20 0.33 0.47 0.60 0.69 0.70 0.66
0.08 0.07 0.07 0.06 0.06 0.06 0.07 0.07 0.06 0.08 0.08 0.07 0.06 0.08 0.13 0.17 0.20 0.23 0.28 0.36 0.48 0.58
0.08 0.09 0.07 0.05 0.07 0.07 0.06 0.06 0.04 0.08 0.15 0.17 0.17 0.16 0.13 0.13 0.14 0.18 0.23 0.27 0.31 0.33
0.08 0.08 0.09 0.08 0.05 0.08 0.08 0.08 0.12 0.11 0.11 0.14 0.18 0.36 0.28 0.18 0.16 0.18 0.23 0.28 0.36 0.45
0.13 0.20 0.20 0.15 0.13 0.11 0.15 0.24 0.23 0.22 0.26 0.25 0.24 0.35 0.29 0.34 0.36 0.42 0.47 0.48 0.45 0.37
0.48 0.52 0.60 0.75 0.63 0.64 0.52 0.46 0.54 0.56 0.58 0.64 0.76 0.80 0.68 0.55 0.44 0.46 0.48 0.45 0.40 0.33
0.70 0.74 0.84 1.06 1.14 0.80 0.97 0.78 0.78 0.68 0.55 0.59 0.71 0.67 0.50 0.45 0.39 0.29 0.19 0.14 0.07 0.03
0.75 0.73 0.89 0.99 0.98 0.72 0.61 0.66 0.58 0.63 0.60 0.51 0.43 0.31 0.20 0.11 0.08 0.05 0.02 0.00 0.00 0.02
0.73 0.45 0.61 0.69 0.62 0.47 0.37 0.42 0.43 0.39 0.32 0.22 0.14 0.07 0.03 0.03 0.02 0.01 0.02 0.01 0.01 0.00

GFSNIL_prec_precacc_126.txt.gz
Total_Precipitation_Accumulation
1.45 1.46 1.55 1.54 1.51 1.45 1.41 1.37 1.37 1.41 1.25 1.27 1.40 1.61 1.73 1.58 1.43 1.36 1.35 1.34 1.37 1.39
0.89 0.96 0.84 0.88 0.78 0.78 0.95 1.05 1.12 1.22 1.32 1.26 1.29 1.35 1.36 1.31 1.22 1.15 1.01 0.95 0.99 1.04
0.32 0.52 0.68 0.65 0.61 0.43 0.51 0.70 1.21 1.17 0.88 0.89 0.94 1.13 1.41 1.40 1.22 1.19 1.18 1.09 1.08 1.08
0.18 0.27 0.25 0.24 0.32 0.34 0.36 0.46 0.72 1.00 1.16 1.04 0.89 0.87 0.93 0.94 1.03 1.22 1.24 1.26 1.25 1.13
0.06 0.06 0.08 0.07 0.07 0.06 0.05 0.06 0.09 0.14 0.22 0.30 0.47 0.60 0.62 0.64 0.68 0.74 0.82 0.89 1.02 0.97
0.04 0.04 0.06 0.07 0.07 0.07 0.07 0.08 0.07 0.05 0.05 0.06 0.06 0.07 0.11 0.20 0.33 0.47 0.60 0.69 0.70 0.66
0.08 0.07 0.07 0.06 0.06 0.06 0.07 0.07 0.06 0.08 0.08 0.07 0.06 0.08 0.13 0.17 0.20 0.23 0.28 0.36 0.48 0.58
0.08 0.09 0.07 0.05 0.07 0.07 0.06 0.06 0.04 0.08 0.15 0.17 0.17 0.16 0.13 0.13 0.14 0.18 0.23 0.27 0.31 0.33
0.08 0.08 0.09 0.08 0.05 0.08 0.08 0.08 0.12 0.11 0.11 0.14 0.18 0.36 0.28 0.18 0.16 0.18 0.23 0.28 0.36 0.45
0.13 0.20 0.20 0.15 0.13 0.11 0.15 0.24 0.23 0.22 0.26 0.25 0.24 0.35 0.29 0.34 0.36 0.42 0.47 0.48 0.45 0.37
0.48 0.52 0.60 0.75 0.63 0.64 0.52 0.46 0.54 0.56 0.58 0.64 0.76 0.80 0.68 0.55 0.44 0.46 0.48 0.45 0.40 0.33
0.70 0.74 0.84 1.06 1.14 0.80 0.97 0.78 0.78 0.68 0.55 0.59 0.71 0.67 0.50 0.45 0.39 0.29 0.19 0.14 0.07 0.03
0.75 0.73 0.89 0.99 0.98 0.72 0.61 0.66 0.58 0.63 0.60 0.51 0.43 0.31 0.20 0.11 0.08 0.05 0.02 0.00 0.00 0.02
0.73 0.45 0.61 0.69 0.62 0.47 0.37 0.42 0.43 0.39 0.32 0.22 0.14 0.07 0.03 0.03 0.02 0.01 0.02 0.01 0.01 0.00

GFSNIL_prec_precacc_129.txt.gz
Total_Precipitation_Accumulation
1.45 1.46 1.55 1.54 1.51 1.45 1.41 1.37 1.37 1.41 1.25 1.27 1.40 1.61 1.73 1.58 1.44 1.36 1.35 1.34 1.37 1.39
0.89 0.96 0.84 0.88 0.78 0.78 0.95 1.05 1.12 1.22 1.32 1.26 1.29 1.35 1.36 1.31 1.22 1.16 1.01 0.95 0.99 1.04
0.32 0.52 0.68 0.65 0.61 0.43 0.51 0.70 1.21 1.17 0.88 0.89 0.94 1.13 1.41 1.40 1.22 1.19 1.18 1.09 1.08 1.08
0.18 0.27 0.25 0.24 0.32 0.34 0.36 0.46 0.72 1.00 1.16 1.04 0.89 0.87 0.93 0.94 1.03 1.22 1.24 1.26 1.25 1.13
0.06 0.06 0.08 0.07 0.07 0.06 0.05 0.06 0.09 0.14 0.22 0.30 0.47 0.60 0.62 0.64 0.68 0.74 0.82 0.89 1.02 0.97
0.04 0.04 0.06 0.07 0.07 0.07 0.07 0.08 0.07 0.05 0.05 0.06 0.06 0.07 0.11 0.20 0.33 0.47 0.60 0.69 0.70 0.66
0.08 0.07 0.07 0.06 0.06 0.06 0.07 0.07 0.06 0.08 0.08 0.07 0.06 0.08 0.13 0.17 0.20 0.23 0.28 0.36 0.48 0.58
0.08 0.09 0.07 0.05 0.07 0.07 0.06 0.06 0.04 0.08 0.15 0.17 0.17 0.16 0.13 0.13 0.14 0.18 0.23 0.27 0.31 0.33
0.08 0.08 0.09 0.08 0.05 0.08 0.08 0.08 0.12 0.11 0.11 0.14 0.18 0.36 0.28 0.18 0.16 0.18 0.23 0.28 0.36 0.45
0.13 0.20 0.20 0.15 0.13 0.11 0.15 0.24 0.23 0.22 0.26 0.25 0.24 0.35 0.29 0.34 0.36 0.42 0.47 0.48 0.45 0.37
0.48 0.52 0.60 0.75 0.63 0.64 0.52 0.46 0.54 0.56 0.58 0.64 0.76 0.80 0.68 0.55 0.44 0.46 0.48 0.45 0.40 0.33
0.70 0.74 0.84 1.06 1.14 0.80 0.97 0.78 0.78 0.68 0.55 0.59 0.71 0.67 0.50 0.45 0.39 0.29 0.19 0.14 0.07 0.03
0.75 0.73 0.89 0.99 0.98 0.72 0.61 0.66 0.58 0.63 0.60 0.51 0.43 0.31 0.20 0.11 0.08 0.05 0.02 0.00 0.00 0.02
0.73 0.45 0.61 0.69 0.62 0.47 0.37 0.42 0.43 0.39 0.32 0.22 0.14 0.07 0.03 0.03 0.02 0.01 0.02 0.01 0.01 0.00

GFSNIL_prec_precacc_132.txt.gz
Total_Precipitation_Accumulation
1.45 1.46 1.55 1.54 1.51 1.45 1.41 1.37 1.37 1.41 1.25 1.27 1.40 1.61 1.73 1.58 1.44 1.36 1.35 1.34 1.37 1.40
0.89 0.96 0.84 0.88 0.78 0.78 0.95 1.05 1.12 1.22 1.32 1.26 1.29 1.35 1.36 1.31 1.22 1.16 1.01 0.95 0.99 1.04
0.32 0.52 0.68 0.65 0.61 0.43 0.51 0.70 1.21 1.17 0.88 0.89 0.94 1.13 1.41 1.40 1.22 1.19 1.18 1.09 1.08 1.08
0.18 0.27 0.25 0.24 0.32 0.34 0.36 0.46 0.72 1.00 1.16 1.04 0.89 0.87 0.93 0.94 1.03 1.22 1.24 1.26 1.25 1.13
0.06 0.06 0.08 0.07 0.07 0.06 0.05 0.06 0.09 0.14 0.22 0.30 0.47 0.60 0.62 0.64 0.68 0.74 0.82 0.89 1.02 0.97
0.04 0.04 0.06 0.07 0.07 0.07 0.07 0.08 0.07 0.05 0.05 0.06 0.06 0.07 0.11 0.20 0.33 0.47 0.60 0.69 0.70 0.66
0.08 0.07 0.07 0.06 0.06 0.06 0.07 0.07 0.06 0.08 0.08 0.07 0.06 0.08 0.13 0.17 0.20 0.23 0.28 0.36 0.48 0.58
0.08 0.09 0.07 0.05 0.07 0.07 0.06 0.06 0.04 0.08 0.15 0.17 0.17 0.16 0.13 0.13 0.14 0.18 0.23 0.27 0.31 0.33
0.08 0.08 0.09 0.08 0.05 0.08 0.08 0.08 0.12 0.11 0.11 0.14 0.18 0.36 0.28 0.18 0.16 0.18 0.23 0.28 0.36 0.45
0.13 0.20 0.20 0.15 0.13 0.11 0.15 0.24 0.23 0.22 0.26 0.25 0.24 0.35 0.29 0.34 0.36 0.42 0.47 0.48 0.45 0.37
0.48 0.52 0.60 0.75 0.63 0.64 0.52 0.46 0.54 0.56 0.58 0.64 0.76 0.80 0.68 0.55 0.44 0.46 0.48 0.45 0.40 0.33
0.70 0.74 0.84 1.06 1.14 0.80 0.97 0.78 0.78 0.68 0.55 0.60 0.71 0.67 0.50 0.45 0.39 0.29 0.19 0.14 0.07 0.03
0.75 0.73 0.89 0.99 0.98 0.72 0.61 0.66 0.58 0.63 0.60 0.51 0.43 0.31 0.20 0.11 0.08 0.05 0.02 0.00 0.00 0.02
0.73 0.45 0.61 0.69 0.62 0.47 0.37 0.42 0.43 0.39 0.32 0.22 0.14 0.07 0.03 0.03 0.02 0.01 0.02 0.01 0.01 0.00

GFSNIL_prec_precacc_135.txt.gz
Total_Precipitation_Accumulation
1.45 1.46 1.55 1.54 1.51 1.45 1.41 1.37 1.37 1.41 1.25 1.27 1.40 1.61 1.73 1.58 1.44 1.36 1.35 1.34 1.37 1.40
0.89 0.96 0.84 0.88 0.78 0.78 0.95 1.05 1.12 1.22 1.32 1.26 1.29 1.35 1.36 1.31 1.22 1.16 1.01 0.95 0.99 1.04
0.32 0.52 0.68 0.65 0.61 0.43 0.51 0.70 1.21 1.17 0.88 0.89 0.94 1.13 1.41 1.40 1.22 1.19 1.18 1.09 1.08 1.08
0.18 0.27 0.25 0.24 0.32 0.34 0.36 0.46 0.72 1.00 1.16 1.04 0.89 0.87 0.93 0.94 1.03 1.22 1.24 1.26 1.25 1.13
0.06 0.06 0.08 0.07 0.07 0.06 0.05 0.06 0.09 0.14 0.22 0.30 0.47 0.60 0.62 0.64 0.68 0.74 0.82 0.89 1.02 0.97
0.04 0.04 0.06 0.07 0.07 0.07 0.07 0.08 0.07 0.05 0.05 0.06 0.06 0.07 0.11 0.20 0.33 0.47 0.60 0.69 0.70 0.66
0.08 0.07 0.07 0.06 0.06 0.06 0.07 0.07 0.06 0.08 0.08 0.07 0.06 0.08 0.13 0.17 0.20 0.23 0.28 0.36 0.48 0.58
0.08 0.09 0.07 0.05 0.07 0.07 0.06 0.06 0.04 0.08 0.15 0.17 0.17 0.16 0.13 0.13 0.14 0.18 0.23 0.27 0.31 0.33
0.08 0.08 0.09 0.08 0.05 0.08 0.08 0.08 0.12 0.11 0.11 0.14 0.18 0.36 0.28 0.18 0.16 0.18 0.23 0.28 0.36 0.45
0.13 0.20 0.20 0.15 0.13 0.11 0.15 0.24 0.23 0.22 0.26 0.25 0.24 0.35 0.29 0.34 0.36 0.42 0.47 0.48 0.45 0.37
0.48 0.52 0.60 0.75 0.63 0.64 0.52 0.46 0.54 0.56 0.58 0.64 0.76 0.80 0.68 0.55 0.44 0.46 0.48 0.45 0.40 0.33
0.70 0.74 0.84 1.06 1.14 0.80 0.97 0.78 0.78 0.68 0.55 0.60 0.71 0.67 0.50 0.45 0.39 0.29 0.19 0.14 0.07 0.03
0.75 0.73 0.89 0.99 0.98 0.72 0.61 0.66 0.58 0.63 0.60 0.51 0.43 0.31 0.20 0.11 0.08 0.05 0.02 0.00 0.00 0.02
0.73 0.45 0.61 0.69 0.62 0.47 0.37 0.42 0.43 0.40 0.33 0.22 0.14 0.07 0.03 0.03 0.02 0.01 0.02 0.01 0.01 0.00

GFSNIL_prec_precacc_138.txt.gz
Total_Precipitation_Accumulation
1.45 1.46 1.55 1.54 1.51 1.45 1.41 1.37 1.37 1.41 1.25 1.27 1.40 1.61 1.73 1.58 1.44 1.36 1.35 1.34 1.37 1.40
0.89 0.96 0.84 0.88 0.78 0.78 0.95 1.05 1.12 1.22 1.32 1.26 1.29 1.35 1.36 1.31 1.22 1.16 1.01 0.95 0.99 1.04
0.32 0.52 0.68 0.65 0.61 0.43 0.51 0.70 1.21 1.17 0.88 0.89 0.94 1.13 1.41 1.40 1.22 1.19 1.18 1.09 1.08 1.08
0.18 0.27 0.25 0.24 0.32 0.34 0.36 0.46 0.72 1.00 1.16 1.04 0.89 0.87 0.93 0.94 1.03 1.22 1.24 1.26 1.25 1.13
0.06 0.06 0.08 0.07 0.07 0.06 0.05 0.06 0.09 0.14 0.22 0.30 0.47 0.60 0.62 0.64 0.68 0.74 0.82 0.89 1.02 0.97
0.04 0.04 0.06 0.07 0.07 0.07 0.07 0.08 0.07 0.05 0.05 0.06 0.06 0.07 0.11 0.20 0.33 0.47 0.60 0.69 0.70 0.66
0.08 0.07 0.07 0.06 0.06 0.06 0.07 0.07 0.06 0.08 0.08 0.07 0.06 0.08 0.13 0.17 0.20 0.23 0.28 0.36 0.48 0.58
0.08 0.09 0.07 0.05 0.07 0.07 0.06 0.06 0.04 0.08 0.15 0.17 0.17 0.16 0.13 0.13 0.14 0.18 0.23 0.27 0.31 0.33
0.08 0.08 0.09 0.08 0.05 0.08 0.08 0.08 0.12 0.11 0.11 0.14 0.18 0.36 0.28 0.18 0.16 0.18 0.23 0.28 0.36 0.45
0.13 0.20 0.20 0.15 0.13 0.11 0.15 0.24 0.23 0.22 0.26 0.25 0.24 0.35 0.29 0.34 0.36 0.42 0.47 0.48 0.45 0.37
0.48 0.52 0.60 0.75 0.63 0.64 0.52 0.46 0.54 0.56 0.58 0.64 0.76 0.80 0.68 0.55 0.44 0.46 0.48 0.45 0.40 0.33
0.70 0.74 0.84 1.06 1.14 0.80 0.97 0.78 0.78 0.68 0.55 0.60 0.71 0.67 0.50 0.45 0.39 0.29 0.19 0.14 0.07 0.03
0.75 0.73 0.89 0.99 0.98 0.72 0.61 0.66 0.58 0.63 0.60 0.51 0.43 0.32 0.20 0.11 0.08 0.05 0.02 0.00 0.00 0.02
0.73 0.45 0.61 0.69 0.62 0.47 0.37 0.42 0.43 0.40 0.33 0.23 0.15 0.08 0.04 0.03 0.02 0.01 0.02 0.01 0.01 0.00